GFSNE_850_thetae_000.txt.gz
Theta_e
290 289 289 288 288 287 287 286 287 289 289 288 288 289 289 288 288 287 288 287 288 289 289 290 290 291 292 292 293 293 294 294 294 295 295 296 298 298
289 288 288 288 287 287 286 285 286 287 288 288 288 288 288 288 287 287 287 287 288 288 288 289 289 289 291 291 291 292 292 291 292 293 294 295 296 297
288 288 288 287 286 285 286 287 288 288 288 288 288 288 288 287 286 287 287 286 286 286 287 287 288 289 290 290 289 289 290 291 292 293 293 294 295 295
288 288 287 287 286 285 286 287 287 288 288 288 288 287 286 287 287 287 285 284 284 284 285 287 287 287 287 288 288 289 290 290 291 291 292 293 294 295
287 287 287 286 285 285 286 287 287 287 287 287 286 286 287 287 286 285 284 283 283 283 284 285 286 286 287 288 289 288 288 288 289 290 291 291 292 293
287 286 286 285 285 285 286 287 286 285 286 286 287 286 288 286 284 283 283 282 283 284 284 284 285 285 286 285 286 286 287 287 288 289 290 291 292 292
286 286 285 285 285 286 286 286 286 286 287 287 286 286 285 284 283 283 282 283 284 284 283 283 283 283 283 283 284 285 286 287 288 290 290 290 291 292
285 286 285 285 285 285 285 285 286 287 286 286 286 284 283 283 282 283 284 284 282 282 282 282 283 282 283 283 283 285 286 287 288 288 288 290 291 291
285 285 285 284 284 284 284 285 285 285 285 284 283 283 283 283 284 282 282 282 282 282 282 282 282 282 282 282 283 284 285 286 287 287 288 288 289 290
284 284 284 284 283 284 285 285 286 284 283 282 282 283 283 282 282 282 282 282 282 281 281 282 281 281 282 282 283 284 285 286 287 287 288 289 289 290
283 284 284 283 284 285 286 285 283 283 282 283 282 282 281 281 282 282 281 281 280 280 281 281 281 281 282 282 283 284 285 286 286 287 287 287 288 289
284 284 284 284 285 285 284 283 282 282 283 282 281 281 281 281 281 280 280 280 280 280 281 281 281 282 283 283 283 283 283 283 285 286 286 287 287 288
285 284 283 284 284 283 282 281 282 283 282 280 280 280 280 280 281 281 281 280 280 281 282 282 282 282 282 283 283 282 282 284 284 287 289 289 288 288
284 283 284 283 282 281 280 281 282 281 280 279 280 280 280 281 281 281 281 281 282 282 282 282 282 282 282 283 282 283 284 285 287 289 289 290 291 290
284 284 283 281 280 280 280 280 280 279 279 279 280 280 281 281 281 281 281 282 282 282 282 282 282 282 282 282 282 283 284 288 290 289 291 292 292 294
283 282 281 280 279 279 280 280 279 279 279 279 279 281 281 281 281 281 281 282 282 282 283 283 283 283 283 284 284 285 287 285 290 291 292 293 294 296
282 281 279 279 279 279 280 279 279 279 279 280 280 281 281 281 282 282 282 282 282 283 283 283 284 284 285 285 286 286 288 290 291 292 292 292 294 297
280 278 278 278 278 278 279 279 279 279 279 280 281 281 281 282 282 282 282 282 282 283 283 283 284 285 286 287 287 287 289 291 292 292 292 291 292 296
278 278 278 278 278 279 279 279 279 279 280 281 282 282 282 283 282 282 282 282 283 283 284 284 284 284 285 285 288 289 291 292 293 293 292 292 291 291
278 277 277 278 279 279 279 279 280 281 281 282 283 284 284 283 283 283 282 282 283 283 284 285 285 285 286 286 287 290 291 293 293 293 293 293 293 292
277 278 278 278 279 280 280 280 280 281 281 283 284 284 284 284 284 284 283 283 283 284 284 285 286 286 288 289 289 290 291 292 293 293 293 292 292 292
278 278 279 280 280 280 281 281 282 283 284 284 285 285 285 285 285 284 284 284 284 284 284 285 286 288 288 289 289 290 291 292 292 292 292 292 292 292
278 278 280 281 281 281 281 282 283 284 285 286 286 286 286 285 285 285 285 285 284 284 284 285 286 287 288 288 289 290 290 290 291 292 292 293 292 292

GFSNE_850_thetae_003.txt.gz
Theta_e
290 290 289 288 288 287 287 286 285 286 286 287 287 288 288 288 288 288 287 287 288 289 290 290 290 291 291 291 291 292 293 295 295 295 296 296 296 297
290 289 288 288 287 287 286 285 285 287 287 287 287 287 287 287 287 287 286 287 287 288 288 288 288 288 289 289 290 291 293 293 293 294 294 295 294 295
289 288 288 287 286 286 285 285 285 286 287 287 287 287 286 286 286 286 286 287 286 286 286 286 286 287 288 289 290 290 291 291 291 292 292 293 294 295
288 287 287 286 285 285 285 285 285 286 287 287 286 285 285 287 285 285 287 285 283 283 284 285 286 287 288 288 288 289 289 290 290 291 291 292 293 294
287 286 286 285 285 285 285 285 286 286 286 285 285 286 287 285 285 286 284 283 282 283 283 284 285 286 286 287 287 288 289 289 289 289 290 291 291 292
286 285 285 285 285 285 285 286 286 285 285 285 286 286 285 285 284 283 283 283 283 282 283 284 283 284 284 285 285 286 286 286 287 288 289 289 290 291
285 285 285 285 285 285 285 286 285 285 286 287 286 286 284 283 283 282 283 283 283 282 282 282 282 282 282 283 283 284 284 285 286 287 288 289 290 291
284 284 283 283 283 284 284 284 285 286 286 286 285 283 282 282 282 283 283 282 282 282 282 282 282 282 281 282 283 284 285 285 286 287 287 288 289 290
283 283 283 283 283 283 284 285 286 285 284 284 282 282 282 283 283 282 282 282 282 282 281 281 281 281 282 282 282 283 284 285 286 287 287 288 289 289
283 283 284 284 283 284 286 285 284 283 282 282 282 283 283 282 282 282 282 282 281 281 281 281 281 281 282 282 283 283 284 285 286 287 287 288 289 289
284 284 284 284 283 286 285 283 282 282 282 282 282 282 281 281 281 282 281 280 280 280 280 280 281 281 281 282 282 283 284 285 285 285 286 287 287 288
285 284 283 284 285 285 284 282 282 281 283 282 281 281 281 281 281 281 281 280 280 280 280 280 281 281 282 282 282 282 283 283 283 284 285 286 287 287
284 284 283 283 284 283 282 281 281 283 282 281 280 281 281 281 282 282 281 280 280 280 281 281 281 282 281 282 282 282 283 284 285 287 288 288 289 288
284 283 283 283 282 281 281 281 282 281 280 280 280 280 281 282 282 282 282 282 281 281 282 282 282 282 282 282 282 284 285 287 287 289 289 289 289 289
283 283 282 281 280 280 280 280 280 280 279 279 279 281 281 282 282 282 282 282 282 283 283 283 283 283 283 283 283 285 285 288 289 289 290 291 291 291
282 282 281 280 279 280 280 280 280 279 279 279 280 281 282 282 282 282 282 282 282 283 283 283 283 284 284 286 286 287 288 285 290 291 291 291 292 292
282 280 279 279 279 280 280 280 280 280 280 280 281 282 282 282 282 282 282 282 282 282 283 284 285 285 287 288 287 288 289 290 292 292 291 291 291 293
280 279 278 278 278 279 279 280 280 280 281 281 282 282 282 282 283 283 283 283 282 283 283 284 285 287 289 289 288 288 290 291 292 292 292 292 291 293
279 278 278 278 278 279 279 279 280 281 281 282 283 283 282 283 283 284 283 283 283 283 284 285 286 286 286 286 290 290 290 291 293 293 292 292 291 292
278 278 278 278 279 280 280 280 281 282 283 283 283 284 284 283 284 284 284 283 283 283 285 286 286 286 287 287 287 291 291 291 292 293 293 292 291 291
278 278 278 279 280 280 281 281 282 282 283 284 285 285 285 284 285 285 284 284 284 284 284 285 286 287 289 290 290 291 291 292 291 292 292 291 291 291
278 278 280 280 281 281 282 282 283 284 285 285 285 285 285 285 285 285 285 284 284 284 284 285 286 288 289 289 288 289 291 292 292 292 291 290 290 290
278 279 280 281 281 282 282 283 284 285 286 286 286 286 286 286 286 285 285 285 285 285 284 286 286 287 287 288 288 289 291 291 291 291 291 291 291 291

GFSNE_850_thetae_009.txt.gz
Theta_e
292 292 291 290 290 288 287 287 286 286 286 286 286 286 286 286 286 286 286 286 286 287 287 288 288 289 290 290 290 290 290 290 291 292 292 293 294 295
292 291 291 289 288 287 286 286 285 285 285 286 286 286 286 285 285 285 285 285 286 286 287 287 288 287 288 288 288 288 289 289 290 291 292 293 294 295
291 291 289 288 287 286 285 285 285 285 285 285 285 285 285 285 285 285 286 285 285 285 286 286 286 286 286 287 287 288 288 289 289 290 291 292 293 294
291 289 288 286 285 285 284 284 284 284 285 285 285 285 285 286 286 285 285 285 284 284 284 284 285 286 286 286 286 287 287 288 288 289 289 290 291 292
288 287 286 285 284 284 284 284 285 285 285 284 285 286 285 285 285 284 283 283 282 283 283 283 284 284 285 285 286 286 286 286 287 287 287 288 289 290
287 285 284 284 284 284 284 285 285 285 285 285 286 285 284 284 283 282 282 282 283 283 283 283 284 284 284 284 284 284 285 285 285 286 286 287 287 288
285 284 284 284 284 284 285 285 285 285 286 286 285 284 283 282 282 282 282 283 283 282 282 283 283 282 282 283 283 283 283 284 284 285 286 287 287 287
284 284 284 284 284 284 284 284 285 286 285 284 283 283 282 282 282 283 282 282 282 283 283 282 282 282 282 282 282 283 283 284 285 285 286 286 286 287
284 284 284 284 283 283 284 284 286 284 283 283 282 282 282 282 282 282 282 282 282 282 282 281 282 282 282 282 282 282 283 284 284 285 285 286 286 287
284 284 284 283 283 284 285 285 284 283 282 282 282 282 283 282 282 282 282 282 282 282 282 281 282 281 281 282 283 283 283 284 285 285 286 286 287 287
284 284 284 284 284 285 285 284 283 282 281 282 282 282 281 282 282 281 282 281 281 281 282 281 282 281 282 283 283 283 283 284 285 285 285 286 287 287
284 284 283 283 284 284 283 283 282 281 282 282 281 282 282 283 283 282 282 280 279 280 282 281 281 282 282 283 284 285 286 287 286 285 285 286 286 287
284 284 283 283 283 283 282 281 281 282 282 281 282 282 283 283 283 283 283 281 280 280 283 281 281 282 281 282 285 287 287 288 288 289 290 290 289 289
283 283 282 283 282 281 280 280 281 281 281 281 280 281 282 284 284 284 284 284 283 283 284 283 282 282 283 283 283 289 290 290 290 290 289 290 291 291
282 282 282 281 280 280 281 281 281 281 280 279 280 282 283 284 284 284 285 284 284 284 284 284 284 285 284 284 284 289 289 290 290 290 289 290 290 291
282 281 280 280 280 281 281 282 281 281 280 279 281 283 284 284 284 284 284 284 284 285 285 285 285 285 286 288 288 290 290 287 289 289 289 290 290 290
281 280 280 280 280 281 281 282 281 282 282 282 283 283 284 284 284 284 284 284 283 284 285 286 286 287 288 288 289 290 289 289 289 289 289 290 290 291
280 279 279 279 280 281 281 281 282 282 283 283 284 284 284 283 283 284 284 284 284 284 284 285 286 287 288 289 289 289 289 289 290 289 289 290 290 293
280 279 279 279 280 281 281 281 282 283 283 284 284 285 284 283 283 284 284 285 285 284 284 285 286 286 285 286 289 290 289 290 290 289 289 290 290 294
279 279 279 280 281 281 281 282 283 284 285 285 284 284 284 283 284 285 285 285 285 284 285 285 286 286 286 286 286 289 290 291 290 289 289 290 292 294
279 279 279 280 281 281 282 283 284 285 285 284 285 285 285 284 285 285 286 286 285 285 285 285 286 286 287 287 287 289 290 291 291 290 289 289 290 291
279 279 280 281 282 282 283 284 285 285 286 285 285 286 286 286 285 286 286 286 286 285 285 285 287 287 287 287 287 288 290 290 291 291 291 290 289 290
279 279 281 282 282 283 283 285 285 286 286 285 286 286 287 286 286 286 286 286 286 285 285 286 286 287 287 287 287 287 289 290 290 290 291 291 291 291

GFSNE_850_thetae_012.txt.gz
Theta_e
293 292 292 291 291 289 289 289 289 289 289 289 289 289 288 288 287 287 287 287 287 288 288 288 289 289 289 289 290 290 291 291 292 292 291 292 293 294
292 292 291 290 289 288 288 288 288 288 288 288 288 288 287 287 287 287 287 287 287 287 287 288 288 288 288 288 289 289 289 289 290 290 291 292 292 293
291 291 290 289 287 287 287 287 287 287 287 287 287 287 287 287 287 287 287 286 286 286 286 286 286 287 287 288 288 288 288 289 289 289 290 290 291 292
291 290 288 287 286 286 286 286 286 286 287 287 287 286 287 287 287 287 286 285 285 285 285 285 286 286 286 287 287 287 288 288 288 288 289 290 290 291
289 288 287 286 285 285 285 286 286 286 286 286 286 286 287 287 286 285 285 284 285 285 285 285 285 286 286 287 287 287 287 287 287 287 288 288 288 289
288 286 286 285 285 285 286 286 286 286 286 286 286 287 287 286 285 284 284 284 284 285 284 285 285 285 286 286 286 286 286 286 286 286 287 287 287 288
287 286 286 285 284 285 286 286 286 285 285 286 288 286 285 285 284 284 284 284 284 284 284 284 285 284 284 285 285 285 285 285 285 286 286 286 287 287
286 286 286 286 285 285 285 285 285 286 286 286 285 285 284 284 284 284 284 283 283 284 284 284 284 284 284 284 284 285 285 285 285 286 286 286 286 287
285 286 286 285 285 285 284 285 285 285 285 285 284 284 283 284 283 284 283 283 283 283 284 283 284 284 284 284 284 285 285 285 285 286 285 286 286 287
285 285 285 285 285 285 285 285 285 284 284 284 283 283 283 283 283 283 282 282 283 283 283 283 283 283 284 284 285 286 285 286 286 286 286 287 287 287
285 285 285 285 284 285 285 284 284 284 283 283 283 284 283 283 282 282 282 282 282 282 283 283 284 283 283 285 286 286 286 286 288 288 287 286 286 287
285 285 285 284 284 284 284 284 283 283 282 283 283 282 282 282 282 282 282 282 281 281 283 282 282 282 283 284 286 288 289 290 289 290 290 289 288 287
285 285 284 284 284 283 283 282 282 282 282 282 281 282 282 283 283 283 283 282 281 281 285 282 281 282 282 283 286 289 289 290 290 290 291 290 289 289
284 284 283 283 282 282 281 281 281 281 281 281 281 282 282 283 284 285 285 284 284 283 285 284 282 282 282 283 283 289 289 290 289 290 290 290 289 289
283 283 283 282 281 280 281 281 281 281 281 280 280 281 282 284 285 284 284 284 285 285 285 284 284 284 283 283 284 286 287 290 290 290 289 289 289 289
283 282 282 280 280 280 281 280 280 280 280 280 280 280 282 283 284 283 283 284 284 286 286 285 284 284 284 285 285 286 289 288 289 290 289 289 289 290
281 281 280 280 280 280 280 280 280 280 280 281 282 283 283 282 284 284 284 284 283 284 285 285 285 285 286 286 287 288 288 289 290 289 289 289 290 290
280 280 280 280 279 279 279 281 281 282 282 284 284 283 283 283 283 284 284 284 284 284 283 284 285 285 286 287 288 288 288 288 290 289 289 289 290 292
279 279 279 279 279 279 280 281 282 283 284 284 284 284 283 283 283 284 285 285 285 285 284 284 285 285 286 286 287 288 287 289 289 289 289 289 290 292
279 278 278 278 279 281 282 282 283 284 285 285 284 284 285 284 284 285 285 285 285 284 284 285 285 286 285 285 286 288 288 288 289 289 289 289 290 291
278 278 278 280 281 282 282 283 284 285 285 285 285 285 285 285 285 285 285 286 284 284 283 284 285 286 286 286 287 287 288 290 289 289 289 289 289 291
278 278 279 281 282 282 283 283 284 285 286 286 286 286 286 286 285 286 286 286 286 284 284 285 286 286 286 286 286 287 288 290 289 290 290 290 290 290
279 279 281 282 282 283 283 284 285 286 286 286 286 286 287 287 287 287 286 286 286 285 285 285 286 286 286 287 286 287 288 289 288 289 290 291 292 292

GFSNE_850_thetae_015.txt.gz
Theta_e
294 293 293 292 292 291 291 290 290 290 290 290 290 290 289 289 288 288 288 288 289 289 289 289 289 289 290 290 290 290 291 291 292 292 293 293 294 294
293 292 292 292 291 290 289 289 289 289 289 289 289 288 288 288 288 288 288 288 288 288 288 288 288 289 288 289 289 289 290 290 291 291 292 292 293 293
291 291 291 291 290 288 288 287 287 287 288 288 288 288 288 287 287 287 288 287 287 287 287 287 287 288 288 288 289 289 289 290 290 290 291 291 292 292
291 291 291 289 288 287 287 287 287 287 287 288 288 287 288 287 287 288 287 286 285 285 286 287 287 288 288 288 288 289 289 289 289 290 290 290 290 291
291 290 289 288 287 287 287 287 287 287 287 287 287 287 286 287 288 287 286 286 285 285 285 286 286 286 287 288 288 288 288 288 288 289 288 288 289 290
290 289 288 287 287 286 286 286 287 286 286 286 286 286 287 287 286 286 285 284 285 284 285 285 286 286 286 287 287 287 287 287 287 288 288 288 287 288
288 288 288 287 286 286 287 286 286 285 285 285 286 287 286 285 285 284 284 284 284 285 284 284 285 284 285 285 285 286 286 287 287 287 287 287 288 288
287 287 287 286 286 286 287 286 286 286 286 286 287 286 285 285 284 284 283 284 285 284 284 284 284 284 284 284 285 286 286 287 287 287 288 287 288 288
286 286 286 286 286 286 285 285 285 285 286 285 285 285 284 283 283 284 284 284 283 283 283 284 284 284 284 284 285 286 286 287 287 288 288 288 288 288
286 286 286 286 286 286 285 285 285 284 284 284 284 284 283 284 285 285 283 283 283 283 283 283 284 284 284 284 286 287 287 287 288 288 288 288 289 289
286 286 286 286 285 285 285 285 284 283 283 283 283 284 284 284 284 283 283 283 283 283 283 282 283 283 283 286 286 286 287 287 289 290 289 289 289 290
285 285 285 285 285 285 285 284 283 282 282 282 283 282 282 282 283 283 283 283 283 282 284 283 282 282 282 283 285 287 288 289 289 289 290 289 290 290
284 284 284 285 284 285 284 283 282 283 283 282 282 282 282 282 283 283 284 283 282 282 285 282 282 282 281 282 285 286 287 289 289 290 290 291 290 290
284 284 284 284 284 283 282 282 282 283 281 281 281 281 281 282 284 284 284 284 283 282 285 284 282 282 282 282 283 286 288 288 288 289 289 290 289 289
283 284 283 283 283 281 281 282 282 281 281 281 281 281 282 284 284 284 284 283 284 285 285 285 283 282 283 283 283 285 285 288 289 289 288 289 290 289
283 282 282 282 281 281 281 281 281 281 281 281 281 282 283 284 284 283 283 284 282 286 286 285 284 283 284 284 285 285 286 286 287 288 288 289 290 289
282 281 281 281 281 280 281 281 281 281 280 282 282 283 284 283 284 284 284 283 281 283 285 286 285 284 284 285 285 286 287 287 287 287 288 288 289 289
281 280 280 280 280 280 280 281 282 282 283 283 284 284 283 283 284 285 284 284 282 283 283 284 283 284 285 285 286 287 287 287 287 288 288 288 289 290
280 279 279 279 279 279 280 281 282 283 283 284 284 284 284 284 284 285 284 284 285 285 285 284 284 284 285 286 286 286 286 287 287 287 288 288 289 290
279 279 279 279 279 280 281 282 282 283 284 285 285 285 285 284 285 285 285 284 284 284 284 284 284 285 285 286 286 287 287 287 287 288 288 289 289 289
278 278 279 279 280 281 282 282 283 284 285 285 285 285 286 285 286 286 286 286 285 285 285 285 285 285 286 286 287 287 288 289 288 288 289 289 289 290
278 279 279 280 281 282 282 283 284 285 285 285 285 286 286 286 286 286 287 287 286 286 286 285 286 286 286 287 287 287 288 288 289 290 290 290 290 290
279 279 280 282 282 283 283 284 284 285 285 286 286 286 287 287 287 287 287 287 287 286 286 286 286 286 286 287 287 287 288 288 288 289 290 290 291 292

GFSNE_850_thetae_018.txt.gz
Theta_e
299 296 294 293 292 292 291 291 290 289 289 289 289 289 288 288 288 288 288 288 288 289 290 290 289 290 290 290 290 291 291 291 292 292 292 294 293 294
296 294 293 292 292 291 290 290 288 288 288 287 287 287 287 287 287 288 287 287 287 288 288 288 288 289 289 289 290 290 291 291 291 292 292 293 293 294
294 292 291 291 291 291 289 288 287 287 287 287 287 287 287 287 287 287 286 288 287 287 287 287 288 288 289 289 289 290 290 290 291 291 292 292 292 293
292 291 291 291 290 289 288 287 287 287 287 287 287 287 287 286 285 286 287 287 285 285 286 286 287 287 288 288 289 289 289 290 290 290 290 291 291 292
291 291 291 290 289 288 287 287 286 286 286 286 286 285 285 285 286 286 285 285 285 284 285 285 285 286 287 288 288 288 288 289 289 289 289 289 290 290
291 290 289 288 288 287 287 287 287 286 286 286 285 285 285 286 286 285 284 284 284 284 284 285 285 285 285 286 286 286 287 287 288 288 289 289 289 289
289 287 288 288 287 287 287 287 287 287 286 286 285 285 286 285 285 284 284 283 284 284 284 284 284 285 285 286 285 286 286 287 288 288 289 289 289 290
287 287 287 286 286 287 287 287 287 287 286 285 286 285 284 284 284 284 283 284 284 284 284 284 285 285 285 285 285 285 286 287 288 288 289 289 289 289
286 286 286 286 286 286 285 286 285 285 285 285 284 284 284 284 284 284 285 285 284 284 283 284 285 284 285 285 285 285 286 286 287 288 289 289 290 290
285 286 286 286 285 286 286 286 285 285 284 284 284 284 284 284 285 285 284 284 283 284 283 283 285 284 284 285 285 286 287 287 287 288 289 289 289 290
284 285 285 285 285 286 286 285 285 284 283 283 283 283 284 284 284 283 283 283 283 283 283 282 284 283 284 285 285 285 285 285 287 287 288 288 289 290
284 284 284 284 285 286 285 285 284 283 283 283 283 283 283 283 283 283 282 283 282 283 284 282 282 281 282 282 284 285 286 287 287 287 288 288 289 289
284 284 284 284 285 285 285 284 283 283 283 283 282 283 283 284 284 284 284 283 282 282 285 282 281 282 282 282 283 285 284 286 286 288 289 289 289 289
284 283 283 284 284 283 283 282 283 283 282 282 281 282 283 284 285 285 284 284 284 283 285 284 282 282 282 282 282 284 285 286 286 287 288 288 288 289
283 283 283 283 282 282 281 282 282 281 281 281 282 284 284 284 284 284 285 285 285 285 285 285 283 283 283 282 283 283 284 286 287 287 287 287 287 288
282 282 282 281 281 281 281 281 281 282 282 282 283 284 284 284 284 284 284 284 283 286 286 285 285 283 283 283 283 284 285 284 286 286 286 287 287 288
283 282 281 280 280 280 281 282 282 283 283 283 283 284 284 284 284 285 284 284 283 284 285 286 285 284 284 284 284 285 285 285 286 286 286 286 288 288
281 280 280 280 280 280 281 282 283 283 283 283 284 284 284 284 284 285 285 285 284 285 285 285 285 285 285 284 284 285 285 286 286 286 287 286 287 288
280 279 279 279 279 280 281 282 282 283 283 284 284 284 284 284 285 285 285 285 285 285 285 286 285 285 284 285 286 286 286 286 287 287 287 287 287 288
279 279 279 279 280 281 282 282 283 283 284 284 284 285 285 285 285 285 285 284 284 284 285 286 286 286 285 286 286 287 288 287 287 287 288 288 289 289
279 279 279 280 281 282 282 283 283 284 284 285 285 285 286 285 285 285 285 286 286 286 285 286 286 286 286 286 286 287 289 289 288 288 289 288 289 289
279 279 280 281 282 282 283 283 284 285 285 285 286 286 286 286 286 285 286 286 287 286 286 286 286 286 286 286 287 287 288 289 289 289 290 290 289 290
279 280 281 282 283 283 283 284 284 285 286 286 286 285 285 285 286 286 286 287 287 286 286 286 286 286 287 286 287 287 288 288 289 289 290 291 291 291

GFSNE_850_thetae_021.txt.gz
Theta_e
305 302 298 295 293 292 292 291 291 289 289 289 288 288 288 287 287 287 287 287 288 288 289 290 290 289 290 290 291 291 292 292 292 292 293 293 294 295
303 299 295 293 292 291 292 291 290 288 287 287 287 287 286 286 287 286 286 285 286 287 288 288 288 289 289 289 290 290 291 291 292 292 292 293 294 294
299 295 292 291 292 292 291 290 288 287 287 287 287 286 286 286 285 285 285 286 286 285 286 287 288 288 288 289 289 289 290 290 291 291 292 292 293 293
294 292 291 292 291 290 289 288 288 287 286 286 286 286 285 285 285 285 286 285 284 284 285 286 286 287 287 287 288 289 289 290 290 290 291 291 292 292
292 291 292 291 290 289 288 288 287 287 287 286 286 286 285 285 286 286 284 284 284 284 284 285 285 286 286 287 287 287 288 288 288 288 289 289 290 290
292 291 289 288 288 288 287 287 287 287 287 286 286 286 285 285 285 284 284 284 284 284 284 285 285 285 285 285 285 286 286 286 287 288 288 289 289 290
290 288 287 287 287 287 287 287 287 287 286 286 285 285 285 284 284 284 283 283 284 285 284 284 284 285 285 286 286 286 286 286 287 288 288 289 289 290
289 288 287 287 286 286 286 286 287 286 287 285 285 285 284 283 283 283 283 284 284 284 284 283 284 285 285 285 285 285 285 285 286 287 288 288 289 290
288 286 286 286 286 285 285 286 286 286 286 285 284 283 283 283 283 284 284 284 283 283 283 283 284 285 285 285 285 286 286 286 286 287 288 289 290 290
286 285 285 285 285 285 286 286 286 285 284 284 283 283 283 284 284 284 283 283 283 284 284 282 284 284 284 284 285 286 286 286 286 286 287 287 287 288
284 284 284 284 284 285 286 286 285 285 284 283 283 283 283 283 283 283 283 282 283 283 285 283 284 283 283 285 285 285 285 285 285 286 285 286 286 287
284 284 283 284 284 285 286 285 284 284 283 283 283 283 283 284 284 284 283 282 282 281 285 282 282 282 282 283 283 285 286 286 286 286 286 286 286 286
283 283 283 283 284 285 284 284 283 283 284 283 283 284 284 285 285 285 284 283 283 282 285 282 281 282 281 282 283 284 285 286 285 286 286 287 287 287
282 282 283 283 283 283 283 282 283 283 282 282 283 284 284 285 285 285 285 285 285 285 286 284 282 282 282 282 282 284 285 285 285 286 286 287 287 287
282 283 283 282 281 281 281 281 281 282 282 283 283 284 284 285 285 285 285 286 286 286 286 286 284 284 283 282 283 283 284 285 286 286 286 286 286 287
283 283 283 281 280 280 281 282 282 282 282 282 283 284 285 285 285 285 285 285 285 286 287 286 285 284 284 284 284 284 285 283 285 286 286 286 287 287
283 282 281 280 280 280 281 282 283 283 283 283 284 284 285 285 285 285 285 285 283 285 286 287 286 286 285 285 284 286 285 285 286 286 286 285 287 287
281 280 280 280 280 280 281 283 283 283 283 284 284 284 284 285 285 285 285 285 284 285 285 286 286 285 285 285 284 285 285 286 286 287 287 285 286 287
279 280 279 280 280 281 282 283 283 284 284 284 284 285 285 285 284 285 285 284 285 285 286 286 285 285 284 284 285 286 286 286 287 287 287 287 287 287
279 279 279 280 280 282 283 283 284 284 284 285 285 285 285 284 284 284 285 285 285 284 285 286 286 285 285 285 286 288 287 287 287 287 287 288 288 289
279 280 280 280 282 283 283 284 284 284 285 285 285 285 285 284 284 285 285 285 285 285 285 285 286 286 286 286 286 287 289 289 288 287 287 288 288 288
279 280 281 282 283 283 284 284 284 285 285 286 285 285 285 285 285 285 285 285 285 285 285 285 286 286 286 286 286 287 288 288 289 289 289 289 289 289
280 281 283 283 284 284 284 284 285 286 286 286 285 285 285 285 285 285 285 285 285 285 285 286 286 286 287 286 286 287 287 288 288 288 290 290 290 290

GFSNE_850_thetae_024.txt.gz
Theta_e
307 306 304 301 297 295 293 292 291 290 290 290 289 289 288 288 287 286 286 286 285 286 287 289 289 290 290 290 291 292 292 292 292 293 293 294 295 295
306 305 302 297 294 293 292 292 291 290 288 288 288 288 287 287 286 286 285 285 285 286 286 287 288 288 289 290 290 290 291 291 292 292 292 293 294 295
304 302 298 295 293 292 292 291 290 289 288 287 287 287 287 286 286 285 285 286 285 285 286 286 287 288 288 288 289 289 290 290 291 291 292 292 293 294
302 299 295 293 292 292 291 289 288 288 287 287 287 287 286 286 285 285 285 284 284 285 285 286 286 286 287 287 288 289 289 289 289 290 290 291 291 292
298 295 293 292 291 290 288 288 288 287 287 287 287 286 286 285 285 284 283 283 284 284 285 285 285 286 286 287 287 287 287 287 287 288 288 289 290 290
295 293 292 290 288 288 288 287 287 287 287 286 286 286 285 285 284 283 283 283 284 285 285 285 286 285 285 285 285 286 286 286 286 287 288 288 289 290
293 291 289 288 287 287 286 287 287 287 286 286 286 286 285 284 284 283 283 284 284 285 285 284 285 284 285 285 286 286 286 285 286 287 288 288 288 289
290 289 288 287 286 286 286 286 286 287 287 286 286 285 284 284 283 283 284 284 284 284 284 284 285 285 286 286 286 286 286 285 286 287 287 288 288 288
288 288 287 286 285 285 285 285 285 286 286 285 285 284 284 283 284 284 284 283 283 284 284 284 285 285 286 286 286 286 286 286 285 286 287 287 288 288
287 286 285 284 284 284 285 285 285 285 285 285 284 283 283 284 284 284 283 283 283 284 285 283 285 285 285 285 286 286 286 286 286 286 286 287 287 287
286 285 284 283 283 285 285 285 285 285 284 283 283 283 284 284 283 283 284 283 283 284 284 283 285 284 284 285 286 285 286 285 285 285 285 285 286 287
284 283 283 282 283 285 285 285 284 283 283 283 283 284 284 284 284 284 284 283 283 282 283 283 283 282 282 282 284 285 286 286 286 286 285 285 285 286
283 282 282 282 284 284 284 283 283 283 283 283 283 284 284 285 285 285 285 284 284 283 285 283 282 282 280 282 283 285 285 285 285 285 286 286 285 285
282 282 282 283 283 282 282 281 282 282 282 283 283 284 284 285 285 285 285 285 285 285 286 285 283 283 283 282 282 285 285 285 285 286 286 286 286 286
282 283 283 283 282 281 280 281 281 282 283 283 283 284 284 285 285 285 285 285 286 286 286 286 284 284 283 283 283 284 285 286 286 286 286 286 286 286
283 283 283 281 280 280 281 281 282 283 283 283 284 284 285 285 285 285 285 285 285 286 286 286 285 284 284 284 284 284 286 283 286 286 286 286 287 287
283 282 281 280 280 281 281 283 283 283 283 283 284 284 285 285 285 285 285 285 284 285 286 286 286 286 285 285 285 286 286 285 286 286 286 286 287 287
281 280 280 280 280 280 282 283 283 284 284 284 285 285 285 285 285 285 284 284 284 285 285 285 285 285 286 285 284 285 285 285 286 286 285 285 285 287
279 280 280 280 280 281 283 283 284 284 284 285 285 285 285 284 284 284 284 284 285 285 285 285 285 284 283 283 285 285 286 286 287 286 286 286 285 287
279 280 280 280 281 283 283 283 284 284 285 285 285 285 285 284 284 284 284 284 284 285 285 286 286 285 284 284 285 287 287 286 286 286 286 286 287 287
280 280 280 281 283 283 283 284 284 285 285 285 285 285 285 285 285 285 285 284 284 285 285 285 286 286 285 286 285 286 288 288 287 286 286 286 286 287
280 280 282 283 283 284 284 284 285 285 286 286 285 284 285 286 286 286 286 285 285 285 284 284 285 285 285 285 285 285 286 288 289 289 289 287 287 287
280 282 283 283 284 284 285 285 285 285 286 285 284 285 286 287 286 286 286 285 285 285 285 284 285 285 285 285 284 284 286 287 287 287 289 289 289 290

GFSNE_850_thetae_027.txt.gz
Theta_e
308 307 307 307 304 301 299 296 293 292 292 293 292 291 289 289 288 287 287 287 286 286 286 286 288 289 289 290 290 291 292 292 293 293 294 294 294 295
308 306 307 306 300 297 295 294 293 292 290 290 289 289 289 288 288 287 286 286 285 285 285 285 287 288 288 289 290 290 290 291 292 292 293 293 294 295
304 303 304 303 298 294 293 293 292 291 289 289 288 287 287 287 286 286 286 285 285 285 285 285 287 287 288 288 289 289 290 290 290 291 292 292 293 294
306 305 300 299 295 292 293 292 290 289 288 288 287 287 287 286 286 285 285 285 284 285 285 285 286 286 287 287 288 289 289 289 290 290 290 291 291 292
303 299 296 295 293 292 291 289 288 288 287 287 287 286 286 286 285 285 284 284 284 285 286 286 286 286 286 287 287 287 287 287 288 287 288 288 289 290
298 298 294 292 291 289 288 288 287 287 287 287 286 286 286 285 285 284 283 284 285 286 286 285 285 285 285 285 286 285 285 285 286 286 287 288 289 289
294 293 290 289 288 288 287 287 287 287 286 286 286 286 285 285 284 283 283 284 284 285 285 285 285 286 286 286 286 287 287 286 286 286 287 288 289 288
294 290 288 287 287 286 286 286 286 286 287 286 286 286 285 284 284 283 284 284 283 284 284 285 285 286 287 286 286 286 286 286 286 287 287 288 288 288
289 288 287 287 286 285 284 284 284 284 286 286 285 285 284 283 284 284 284 284 283 284 284 285 285 286 286 286 286 286 286 286 286 286 287 287 288 288
287 287 286 285 284 284 284 285 285 285 285 285 284 283 283 284 284 284 283 283 283 284 285 285 286 286 286 286 286 287 286 286 286 286 286 287 287 287
286 285 284 283 283 283 285 285 285 285 284 283 283 283 283 283 283 283 284 283 284 285 285 284 285 284 285 286 285 286 286 286 286 285 285 285 286 286
285 284 283 282 282 285 285 285 284 283 283 283 283 283 283 284 284 284 284 283 283 283 283 283 283 282 282 283 284 285 286 286 286 286 285 285 285 285
283 282 282 282 283 284 284 283 282 283 283 282 282 284 284 285 285 285 285 284 284 284 285 282 283 283 280 282 284 286 286 286 286 286 286 286 286 284
282 282 282 284 283 283 282 281 281 282 282 282 283 284 284 285 285 285 285 285 285 284 286 285 283 284 283 282 282 285 286 286 286 286 286 286 286 285
283 283 283 283 282 281 281 281 281 281 283 283 284 284 285 285 285 285 285 285 285 286 286 286 285 284 283 282 282 284 285 286 287 286 285 285 285 286
283 283 283 282 280 280 280 280 282 282 283 283 284 284 285 285 285 285 285 285 285 286 286 285 285 284 284 284 284 284 286 284 286 286 285 286 287 287
283 282 281 280 280 280 281 282 283 283 283 284 284 285 285 285 285 285 285 285 284 285 286 286 285 285 285 284 284 286 286 285 286 286 286 286 287 287
281 280 280 280 280 280 281 283 283 284 284 284 284 285 285 285 285 285 285 285 285 285 285 286 286 285 285 285 283 284 285 285 286 286 285 285 286 286
280 280 280 280 280 281 282 283 284 284 284 284 285 285 285 285 285 286 286 286 286 285 285 285 284 283 282 282 285 284 284 285 285 285 286 285 285 286
280 280 280 280 281 283 283 284 284 284 284 285 285 285 284 285 286 286 286 285 285 285 285 285 285 284 283 283 284 287 287 285 285 285 286 286 286 287
280 280 280 281 283 283 284 284 284 284 284 285 285 284 284 284 286 286 286 285 285 286 285 285 285 285 284 285 284 286 288 288 286 285 286 285 286 286
280 280 282 283 283 284 284 284 285 285 285 285 285 284 284 285 285 286 286 286 286 286 286 286 285 285 285 285 284 285 287 288 289 289 289 288 287 286
280 281 283 283 284 284 284 285 285 285 285 285 283 285 285 285 286 286 286 286 286 286 286 285 285 285 285 285 285 285 286 287 288 289 290 289 289 290

GFSNE_850_thetae_030.txt.gz
Theta_e
312 309 307 307 307 307 307 308 299 295 294 296 294 293 291 290 290 289 288 288 287 287 286 286 286 286 288 290 290 291 291 292 293 293 293 294 295 295
308 309 306 307 305 303 302 301 296 294 292 293 292 291 289 289 289 288 287 287 286 286 286 285 285 287 288 289 290 291 291 291 292 292 293 294 294 295
304 307 306 304 304 304 297 296 294 293 291 291 289 289 288 288 288 287 286 286 286 285 285 285 286 287 288 288 289 289 290 290 291 291 292 292 293 293
305 306 306 301 304 303 301 294 292 291 290 288 288 288 287 287 286 286 286 285 285 285 286 286 286 286 286 287 288 288 289 289 290 290 290 291 291 292
304 304 303 296 296 296 293 292 290 289 288 287 287 287 286 286 286 285 285 285 284 285 286 286 286 286 286 286 287 287 287 287 287 288 288 289 289 290
304 302 297 295 296 295 291 290 288 288 287 287 287 286 286 286 285 285 284 283 284 286 286 286 286 286 286 286 286 286 286 286 286 287 287 288 288 289
301 298 293 293 295 292 289 288 287 287 287 286 286 286 286 285 285 284 283 284 285 286 286 286 286 286 287 287 287 287 286 286 286 286 288 288 288 288
300 296 297 291 288 288 287 286 285 285 285 286 286 285 285 284 284 283 284 284 284 285 284 284 285 287 287 287 287 287 287 287 286 286 287 288 288 288
299 294 287 288 287 286 285 284 284 284 285 285 285 285 284 283 283 284 284 283 283 284 284 284 286 286 287 287 287 287 287 287 286 286 286 287 287 288
286 287 287 287 286 284 283 284 285 285 285 285 284 283 283 284 284 284 283 283 283 285 284 284 286 286 286 286 287 287 287 287 286 286 286 287 287 287
287 287 286 285 283 283 284 285 285 285 284 283 283 283 283 283 283 283 284 283 284 285 285 284 286 285 285 286 286 286 286 286 286 286 286 286 285 286
286 285 283 282 282 284 285 285 284 283 282 282 282 283 283 284 284 284 284 284 283 283 284 283 284 284 282 284 285 286 286 286 286 286 286 286 285 285
283 282 282 282 283 285 284 283 282 282 282 282 282 284 284 285 285 285 285 284 284 284 285 282 282 283 281 282 285 285 286 286 286 287 287 287 286 285
282 283 283 283 284 283 282 281 281 281 281 282 284 284 285 285 285 285 285 285 285 284 285 284 283 284 283 283 284 286 286 286 286 287 287 286 286 285
282 283 283 283 282 281 280 280 280 281 282 283 284 284 285 285 285 286 286 285 286 286 286 286 285 284 284 283 283 285 285 287 287 287 286 286 286 286
283 282 282 281 280 280 280 280 281 282 283 283 284 284 285 285 286 285 285 286 286 287 287 286 286 284 284 285 284 285 287 283 286 286 285 286 286 286
282 281 280 280 280 280 281 281 283 283 284 284 284 284 285 285 285 285 286 286 286 286 287 287 286 285 285 285 283 285 285 285 285 285 285 286 286 287
280 280 280 280 280 281 282 283 284 284 284 284 284 285 285 285 285 286 285 286 286 286 286 286 286 285 285 286 284 284 284 285 285 285 285 284 285 286
280 280 280 280 281 282 283 283 284 284 284 284 285 285 285 285 284 285 286 286 286 286 286 285 285 285 283 282 285 284 284 284 285 285 285 285 284 286
280 280 280 280 282 283 283 284 284 285 285 285 285 285 283 283 284 284 285 286 286 286 286 285 285 285 284 284 284 286 286 285 285 285 285 286 287 287
280 280 280 282 283 283 284 284 284 285 285 284 285 284 283 284 284 284 286 286 286 286 285 285 285 285 284 285 285 285 288 288 287 285 286 286 286 286
280 280 281 283 283 283 284 284 285 285 285 285 285 283 284 285 285 285 286 286 286 286 285 285 285 285 285 286 286 286 286 289 290 289 289 288 287 286
280 281 282 283 283 284 284 284 284 285 285 285 285 285 285 286 286 286 286 286 286 285 285 285 285 285 285 285 286 286 286 288 289 290 291 290 290 290

GFSNE_850_thetae_033.txt.gz
Theta_e
322 317 309 308 311 311 308 307 304 303 302 299 297 297 294 293 291 290 290 289 289 288 288 287 287 286 287 288 290 291 292 292 293 293 294 295 295 296
317 313 309 309 310 307 306 306 302 300 296 298 297 294 293 291 290 289 288 287 287 287 287 286 286 286 287 289 289 290 291 292 292 293 293 294 294 295
312 308 309 308 306 303 303 304 299 295 296 295 294 292 291 290 289 288 287 287 287 287 287 286 286 287 288 288 288 289 290 290 291 292 292 293 293 294
307 306 305 303 304 305 302 301 298 295 294 292 291 290 289 288 288 287 287 286 286 286 285 286 287 287 287 287 287 288 289 290 290 290 291 291 292 292
306 304 303 304 304 302 303 294 294 292 293 290 288 288 288 287 286 286 285 285 285 285 286 287 287 286 287 287 287 287 287 287 288 288 289 289 290 290
303 303 304 303 302 298 299 299 298 292 288 287 287 287 286 286 286 285 285 284 284 285 286 287 286 286 287 287 287 287 287 287 287 287 287 288 288 289
302 302 300 300 300 299 300 293 289 288 288 287 286 286 286 285 285 285 284 283 285 286 287 286 287 287 287 287 287 287 287 287 287 287 287 288 288 289
302 301 300 300 299 295 288 287 286 286 286 286 286 285 285 285 284 284 283 284 284 286 285 284 286 287 287 287 287 287 287 287 287 287 287 288 288 288
299 298 299 293 287 286 286 286 285 284 284 285 285 285 285 284 283 283 284 284 283 285 284 283 286 286 287 287 287 287 287 287 287 287 287 287 288 288
299 295 287 286 286 286 285 284 284 284 285 285 285 284 283 283 284 283 283 283 283 285 284 283 287 286 286 287 288 288 287 287 287 287 286 286 287 287
288 286 286 285 284 284 283 284 285 285 285 284 283 282 282 282 283 283 283 283 283 285 285 284 286 284 286 287 288 287 287 286 286 286 286 286 285 286
286 285 284 284 284 283 285 285 285 284 282 282 282 282 282 283 284 284 284 284 284 284 285 283 285 284 282 287 286 286 287 287 287 287 287 286 286 284
284 283 283 283 283 285 284 284 282 282 282 281 281 283 284 284 285 285 285 285 284 285 286 282 284 285 282 282 287 287 286 287 287 287 287 287 287 286
283 283 283 283 284 283 282 281 281 281 281 281 283 284 285 285 285 285 286 285 285 285 286 285 285 285 284 284 284 287 287 287 286 287 287 287 286 285
283 283 283 282 281 281 280 280 280 281 282 283 284 285 285 285 286 286 286 286 287 287 287 287 286 285 285 284 283 285 285 287 287 286 286 285 285 286
282 282 281 281 280 280 280 280 281 282 283 284 284 285 285 285 286 286 286 287 288 288 287 287 286 285 285 285 284 285 285 283 286 286 285 286 286 286
281 281 280 280 280 280 281 282 283 284 284 284 284 285 285 285 286 286 286 287 287 287 287 286 286 285 285 285 284 285 284 285 286 285 285 286 287 286
280 280 280 280 280 281 283 284 284 284 284 285 285 285 285 285 286 286 286 286 286 287 286 286 285 285 285 285 284 285 285 284 286 286 285 284 285 287
280 280 280 280 281 282 283 284 284 284 285 285 285 285 285 285 285 285 285 285 286 286 286 285 285 284 282 282 284 284 284 286 285 286 286 286 286 288
280 280 280 281 282 283 284 284 285 285 285 285 285 285 284 284 284 285 284 285 286 286 285 285 285 285 284 284 284 286 286 285 286 286 286 287 287 288
280 280 280 281 283 283 284 284 284 285 285 284 285 285 284 283 284 285 285 286 286 286 285 286 286 285 284 285 285 285 287 286 286 286 287 287 288 289
280 280 281 282 283 283 284 284 285 285 285 284 285 284 284 284 285 285 286 286 286 286 286 286 285 285 285 285 285 285 286 288 288 288 288 288 287 287
280 280 281 282 283 283 283 284 284 285 284 284 283 284 284 284 285 285 286 286 286 286 286 286 285 285 285 284 285 285 286 286 287 289 289 289 289 290

GFSNE_850_thetae_036.txt.gz
Theta_e
327 327 325 321 314 310 308 307 307 306 305 300 299 299 296 296 294 293 292 291 291 291 290 289 289 289 289 288 288 289 291 292 293 294 294 295 296 296
326 326 320 313 311 308 306 308 309 310 301 299 296 296 298 296 292 294 291 290 290 289 288 288 287 287 287 287 289 290 291 292 293 294 294 294 295 295
322 321 315 318 308 305 307 308 309 305 303 303 297 294 297 299 294 290 289 288 288 287 287 287 286 286 286 288 289 289 290 290 291 292 293 293 294 294
320 317 313 308 305 305 304 304 304 304 301 299 300 301 301 297 293 289 288 287 287 287 287 286 286 286 287 288 288 288 289 289 290 291 291 291 292 292
316 311 305 303 303 303 304 304 302 301 300 300 299 297 291 289 288 287 287 287 287 287 286 286 287 288 288 288 287 287 288 288 288 289 289 289 290 291
308 304 304 302 303 303 302 300 300 299 296 297 293 289 288 287 286 286 287 287 286 286 285 287 287 288 288 288 287 287 288 288 288 288 288 288 288 289
302 301 301 302 302 301 300 300 299 297 296 290 288 287 287 287 288 287 286 286 285 285 287 287 286 287 288 288 288 288 288 288 288 287 287 288 288 289
301 302 302 301 300 299 298 299 296 289 287 286 287 287 287 287 287 286 286 285 285 286 286 286 286 287 288 288 289 288 288 288 287 287 287 287 288 289
301 300 300 299 298 298 292 287 286 285 285 287 287 287 287 286 286 284 284 285 285 285 285 285 287 286 287 288 289 289 288 288 288 287 287 287 288 288
299 298 297 295 291 287 286 285 284 284 284 285 285 286 285 285 285 284 284 284 285 285 285 285 286 285 286 287 288 289 288 288 288 287 287 287 287 287
294 288 287 287 286 284 283 284 284 285 285 285 284 283 282 282 283 283 283 284 284 285 285 284 286 285 285 288 288 288 288 288 288 287 287 287 287 286
287 286 285 284 283 283 285 286 285 285 284 283 283 283 282 282 284 284 284 284 283 283 285 284 285 284 284 288 287 287 288 287 287 288 288 287 287 286
284 284 283 283 283 284 284 284 284 283 282 282 282 282 284 284 284 284 285 285 285 285 286 283 285 286 283 283 287 287 287 288 286 287 286 287 287 286
283 284 284 284 283 283 283 282 281 281 281 281 282 283 284 284 285 285 285 285 285 286 287 286 285 286 285 285 285 287 286 287 287 287 287 287 286 286
283 283 283 282 281 281 281 281 281 281 281 283 284 284 284 285 285 285 286 286 286 287 287 287 286 286 285 285 284 285 284 287 287 287 286 286 286 286
283 282 281 281 280 281 281 281 281 282 283 284 284 285 285 285 286 286 286 286 286 288 287 287 286 286 285 285 284 285 285 282 286 286 286 286 286 286
281 281 280 280 280 280 281 281 283 284 284 284 284 285 285 285 285 285 286 286 286 287 287 287 286 285 285 284 284 286 285 285 285 285 284 285 286 286
280 280 280 280 281 281 282 283 284 284 284 284 285 285 285 285 285 285 285 285 285 286 286 286 286 286 285 285 285 285 285 285 286 285 285 286 286 286
280 280 280 280 281 281 283 284 284 284 284 285 285 285 285 285 284 285 285 285 285 286 286 286 285 284 284 284 285 285 285 285 286 286 286 286 286 288
279 279 280 280 281 282 283 284 284 284 284 284 285 285 284 284 284 285 285 285 285 286 286 286 286 285 285 285 284 285 285 285 286 286 286 287 287 289
279 279 280 280 281 283 284 284 284 285 285 284 284 284 284 284 284 284 284 285 285 285 286 286 287 286 286 285 285 285 286 286 286 286 286 286 287 289
279 279 279 280 281 283 283 284 284 284 284 284 284 284 284 284 284 284 284 284 285 285 286 286 286 286 285 286 286 286 286 286 286 286 286 286 287 287
279 280 280 280 281 282 283 284 284 284 284 284 284 284 284 284 284 284 284 284 285 285 285 285 286 286 287 287 287 287 286 286 286 286 286 287 287 289

GFSNE_850_thetae_039.txt.gz
Theta_e
325 324 323 323 323 324 320 312 307 306 306 301 302 301 302 299 300 295 294 294 295 297 295 292 292 291 290 289 289 289 289 290 292 294 294 295 296 297
322 322 322 321 320 315 310 306 306 305 304 302 301 303 299 297 294 297 299 301 302 301 298 292 291 290 289 289 289 288 289 291 292 293 294 295 296 296
320 319 319 319 317 312 308 312 315 314 305 304 304 298 295 297 300 302 302 302 301 295 291 290 289 288 288 288 287 288 289 290 291 292 293 294 294 295
316 315 316 314 314 311 310 307 303 303 306 305 301 301 302 301 301 300 301 294 291 291 289 289 288 287 286 287 288 289 289 289 290 291 291 292 293 294
313 312 313 311 308 307 305 301 302 303 303 303 303 301 300 299 299 298 294 291 288 288 288 288 287 286 287 288 288 288 288 288 288 289 289 289 290 291
307 307 306 306 304 302 302 303 304 303 302 301 300 299 298 296 294 289 288 288 288 287 287 286 286 288 288 288 288 288 288 288 288 288 288 288 288 289
303 302 300 300 302 302 303 303 302 301 300 298 296 294 291 288 288 288 288 288 287 286 286 286 287 287 288 288 289 289 289 288 288 288 288 288 289 289
301 301 301 300 302 300 300 299 299 298 297 294 289 287 287 288 288 288 287 287 285 285 285 286 287 287 288 289 289 289 288 288 288 288 288 288 288 288
299 299 299 299 298 297 297 297 297 291 287 286 287 288 288 288 287 287 286 285 285 284 285 286 287 288 288 289 289 289 288 288 288 288 288 288 288 289
297 297 296 297 298 292 291 288 287 285 285 285 286 286 286 286 285 285 285 285 284 285 285 286 287 287 288 289 289 289 289 289 289 289 288 288 287 288
297 297 290 287 287 287 286 285 285 285 286 286 285 285 284 283 283 283 283 283 284 285 286 285 287 286 288 290 290 290 289 289 288 288 288 288 288 287
287 286 285 285 284 283 283 286 287 286 285 284 283 284 283 282 283 283 284 284 284 284 286 286 287 286 285 289 289 288 288 288 287 287 287 287 287 286
284 284 284 284 284 283 284 285 285 284 283 282 283 282 282 284 284 284 285 284 285 285 286 284 286 285 284 284 288 288 287 288 287 287 286 286 286 286
284 284 284 284 283 283 283 282 282 282 282 282 282 283 284 284 284 285 285 285 285 286 286 285 285 286 286 285 286 287 287 287 287 287 287 286 286 286
284 283 283 282 282 282 282 282 281 281 281 282 283 284 284 285 285 285 285 286 286 287 287 287 286 286 285 285 285 286 286 287 287 287 287 286 286 286
283 283 282 282 281 281 281 281 281 282 283 284 284 284 285 285 286 285 285 286 286 287 287 286 286 285 285 284 283 285 287 283 286 286 286 286 287 287
282 281 281 281 281 281 281 281 282 283 283 284 284 285 285 285 285 285 285 285 285 286 287 286 286 285 285 284 284 286 286 286 285 285 284 285 285 286
281 280 280 280 280 280 281 282 283 284 284 285 285 285 285 285 285 285 285 285 285 285 286 286 285 285 285 285 285 286 285 285 285 285 285 285 285 286
280 280 280 280 280 280 281 283 284 284 284 285 285 285 285 285 285 285 285 285 285 285 285 285 285 284 284 284 286 286 285 285 285 285 286 285 285 287
280 280 280 280 280 281 282 284 284 284 284 284 285 285 285 285 285 285 284 284 284 284 285 285 285 285 284 284 285 285 286 286 286 286 286 286 286 286
280 280 280 280 280 281 282 283 284 284 284 284 284 285 285 285 285 284 284 284 282 283 284 285 286 285 284 285 284 285 286 286 287 287 287 286 286 286
280 280 280 280 280 281 282 283 283 284 284 284 284 284 284 284 284 284 284 283 284 284 284 285 285 285 283 284 284 286 286 287 287 287 286 286 286 286
280 280 280 280 281 281 282 282 283 283 284 284 283 284 285 284 284 284 283 283 283 283 283 284 284 283 283 284 286 286 287 287 287 286 286 287 287 287

GFSNE_850_thetae_042.txt.gz
Theta_e
323 323 321 320 320 319 317 315 314 312 306 304 304 302 298 300 302 305 299 295 296 297 298 302 305 305 304 294 292 291 290 290 290 292 294 295 296 297
322 320 319 318 318 318 318 315 313 310 307 304 303 308 309 305 304 304 301 298 296 302 304 304 303 298 293 292 291 289 289 289 291 293 294 295 295 296
321 319 317 317 316 316 315 314 311 307 305 308 306 307 301 300 300 301 296 298 302 304 305 302 294 293 292 290 289 288 288 289 291 292 293 294 295 296
317 316 315 314 313 312 311 308 306 306 305 305 304 304 304 302 299 296 300 302 302 301 300 296 290 288 288 288 287 287 288 289 290 291 291 292 293 293
315 314 312 310 309 308 306 305 304 305 305 305 304 303 302 300 300 300 299 300 299 297 292 288 288 287 287 287 288 288 289 289 289 290 290 290 290 291
313 311 309 308 305 304 303 303 302 302 302 302 302 301 300 299 299 298 297 290 289 289 288 287 287 286 286 288 288 288 288 288 288 289 289 289 289 289
307 304 303 303 301 300 300 301 301 300 300 299 300 298 298 298 293 288 288 288 288 288 287 286 286 286 287 287 288 288 288 288 289 289 289 289 290 290
301 301 300 299 299 299 299 299 299 299 298 297 297 296 289 288 288 288 288 288 287 286 285 285 285 287 288 288 288 289 288 288 289 289 289 289 289 289
298 298 298 297 297 297 297 297 297 296 293 290 287 288 288 288 287 287 287 286 285 284 284 287 287 288 288 289 289 289 289 289 289 289 289 288 289 289
297 297 296 296 296 296 295 290 288 286 285 286 286 285 286 286 286 286 285 284 284 284 284 286 287 288 289 289 289 289 289 289 289 289 288 288 288 288
296 296 294 290 287 286 285 284 285 286 286 287 286 285 284 284 283 283 283 283 283 285 286 286 288 288 289 290 290 290 289 288 288 287 287 287 287 287
287 286 285 284 283 283 284 285 286 287 286 286 285 283 283 283 282 283 283 284 284 284 286 286 287 286 287 290 290 289 289 288 288 288 288 287 286 286
284 284 284 284 284 284 284 284 284 284 284 283 282 282 282 283 284 284 285 285 285 285 285 285 287 287 285 286 290 289 289 289 288 288 287 287 287 286
284 284 284 283 283 283 283 282 282 282 281 281 282 282 283 284 284 284 285 285 285 285 286 285 286 286 286 286 287 289 289 289 289 288 287 286 286 286
284 283 283 283 282 282 282 281 281 281 281 282 282 284 284 285 285 285 285 286 286 286 286 286 286 286 286 285 285 288 287 289 288 287 287 286 286 286
283 282 282 282 281 281 281 281 281 282 282 283 284 285 285 285 285 286 286 286 285 286 286 286 286 285 286 284 284 286 288 285 287 287 286 286 286 286
282 282 282 281 281 281 281 281 282 283 284 285 285 285 286 286 286 286 286 285 284 285 286 287 286 285 284 284 284 286 287 287 287 287 286 286 286 287
281 281 281 281 280 280 281 281 282 284 285 285 285 285 286 286 286 286 285 285 285 285 285 286 285 283 284 285 284 286 286 286 286 286 286 286 286 286
281 281 280 280 280 280 281 281 283 284 285 285 285 285 285 285 285 285 285 284 285 285 285 284 282 282 282 282 286 284 284 285 285 285 286 286 286 286
280 280 280 280 280 280 280 281 283 284 284 284 284 284 284 284 284 284 284 284 284 284 284 285 284 283 282 282 282 283 284 285 286 286 286 286 287 286
280 280 280 280 280 280 280 281 281 283 283 284 283 283 283 283 283 284 284 284 283 283 283 285 285 283 282 282 282 284 286 285 285 285 286 286 287 287
280 280 280 280 280 280 280 280 281 282 282 282 282 282 282 282 283 283 283 283 284 284 283 284 284 283 281 281 282 283 284 285 285 285 286 286 287 287
280 280 280 280 280 280 280 281 281 281 282 282 282 282 283 283 284 284 284 284 283 283 283 283 283 283 284 282 282 282 283 284 284 285 286 286 287 286

GFSNE_850_thetae_045.txt.gz
Theta_e
322 322 321 321 321 321 321 318 316 312 311 310 308 306 306 304 306 300 305 306 306 307 303 299 299 296 301 304 304 303 297 294 293 291 291 294 296 297
320 319 321 322 321 320 318 318 315 312 310 311 310 310 309 308 305 305 311 306 308 302 300 298 298 302 301 299 295 294 294 292 290 291 294 295 296 296
318 317 317 317 317 317 316 314 312 310 310 309 307 307 305 305 306 302 303 302 301 300 298 297 300 300 294 293 293 289 289 289 290 292 293 294 295 296
313 314 315 315 313 313 313 313 311 307 305 304 305 304 304 303 304 303 303 302 299 298 298 299 300 297 291 290 289 289 288 289 290 291 292 292 293 294
312 312 312 311 310 311 310 310 308 305 303 303 303 303 303 302 302 299 299 298 297 299 299 297 293 289 288 287 287 288 290 290 290 290 291 292 292 292
309 308 308 309 309 307 305 304 304 303 302 301 302 301 301 301 298 298 297 296 297 293 289 289 288 287 287 286 287 288 288 288 288 289 289 290 290 290
307 307 307 305 304 302 300 300 300 300 300 300 300 299 298 297 297 296 295 290 289 288 288 287 286 285 285 286 287 287 288 288 288 289 289 290 290 290
302 302 301 300 299 299 299 297 297 297 297 297 297 296 295 295 291 288 288 288 288 287 286 285 284 286 287 288 288 288 289 288 289 289 289 289 290 290
299 299 299 298 298 298 298 297 296 295 294 294 293 291 288 288 288 287 287 287 287 286 284 284 286 288 288 289 289 288 288 288 288 289 289 289 289 289
298 297 297 296 296 296 296 294 291 287 286 286 286 286 286 286 286 286 285 285 284 284 283 285 287 288 288 288 289 289 289 288 288 288 288 288 288 288
294 291 290 287 287 286 285 285 285 286 286 287 286 286 285 285 285 284 283 283 283 284 285 285 287 288 289 290 289 289 289 288 288 288 288 288 288 288
286 286 285 285 285 284 284 284 284 285 286 286 286 285 283 282 283 282 283 283 284 284 286 286 286 286 288 289 289 289 289 289 289 289 289 288 288 287
285 285 285 284 284 283 283 283 283 284 283 283 282 282 282 282 283 284 284 284 285 285 285 284 285 285 285 287 290 290 290 289 289 289 289 288 287 286
284 284 283 283 283 282 282 282 282 281 281 281 282 282 282 284 284 284 284 285 285 285 285 285 285 285 285 285 287 289 290 290 290 290 289 288 288 286
283 283 283 282 282 282 281 281 281 281 281 281 282 283 284 285 285 285 286 286 286 286 286 285 285 286 285 285 286 288 288 290 289 289 289 288 288 287
282 282 282 282 281 281 281 281 281 281 282 283 284 284 285 285 285 286 286 286 287 288 286 286 285 285 285 285 284 286 287 286 289 288 287 288 288 287
282 282 282 281 281 281 281 281 281 282 283 284 284 285 285 286 286 286 286 287 287 287 287 287 286 284 283 283 283 284 286 287 287 287 286 287 288 288
282 282 281 281 280 280 280 281 281 282 283 284 285 285 285 285 286 286 286 286 286 286 286 286 285 284 284 285 285 286 285 286 286 285 285 284 286 287
282 281 281 280 280 280 280 280 281 282 284 284 285 285 285 285 285 285 285 285 285 285 285 285 284 283 282 282 285 285 284 285 284 284 285 285 285 286
281 281 281 280 280 280 280 280 281 282 283 284 284 284 284 283 283 284 284 284 284 284 284 284 284 284 282 282 282 285 285 284 284 284 285 285 285 286
281 281 280 280 280 280 280 280 281 281 282 282 283 282 282 281 282 282 282 283 283 282 283 284 285 284 283 282 282 285 286 285 284 283 284 284 284 284
281 281 281 280 280 280 280 280 281 281 281 282 281 281 282 281 282 282 283 283 284 283 284 284 284 284 284 283 283 283 285 285 285 284 284 284 284 284
281 281 281 281 281 281 281 281 281 282 282 282 282 282 282 283 284 284 284 284 283 283 283 283 283 283 283 282 281 282 283 284 284 284 284 285 285 285

GFSNE_850_thetae_048.txt.gz
Theta_e
319 319 320 322 321 321 320 318 316 314 314 316 314 313 312 309 306 306 304 303 306 305 304 304 305 303 303 304 302 300 302 304 302 298 295 294 295 296
318 318 317 317 319 317 316 316 315 313 311 312 311 311 308 307 304 303 303 304 304 304 302 302 300 300 300 300 300 300 300 299 298 295 295 295 296 297
314 316 316 316 315 315 314 314 313 313 311 310 309 310 307 306 305 305 303 302 303 300 299 300 299 299 298 297 298 297 296 294 293 293 294 294 295 296
313 312 313 313 311 312 312 310 310 308 309 309 307 306 304 303 303 302 302 300 300 300 299 299 298 297 296 297 296 293 292 290 290 290 292 293 293 294
309 308 310 309 310 309 308 307 306 305 303 303 303 302 301 300 299 300 300 298 298 297 297 296 297 297 296 292 290 289 289 290 291 291 291 292 293 293
306 306 307 307 307 307 307 305 303 302 301 300 300 300 300 300 298 299 297 297 296 295 296 295 291 290 289 288 287 286 287 288 288 289 289 290 290 291
305 306 305 305 304 303 302 301 300 300 300 299 299 298 298 298 297 296 295 295 295 293 289 289 288 287 286 286 286 286 286 287 288 288 288 290 291 291
302 301 301 301 300 300 300 300 299 298 299 298 297 296 296 295 295 294 294 291 288 288 287 287 286 285 285 286 287 287 287 288 288 289 289 289 290 290
299 299 299 298 297 297 297 297 297 296 296 296 295 294 293 290 288 288 288 287 287 287 286 285 284 285 287 287 288 288 288 288 288 288 289 289 289 289
298 298 298 297 295 294 294 291 290 288 287 286 286 286 286 286 286 286 286 285 285 285 284 283 285 287 288 288 288 288 288 288 289 289 289 289 288 288
288 288 287 287 286 286 285 285 285 285 286 286 286 286 286 285 285 284 284 284 283 283 284 285 287 288 288 289 289 289 289 288 288 288 288 288 289 289
286 286 286 285 285 284 284 284 284 284 284 285 285 285 285 283 282 282 283 282 283 285 286 286 286 287 288 288 289 288 288 288 288 288 288 289 289 289
285 285 284 284 284 284 283 283 283 283 283 282 282 282 282 282 282 282 283 284 284 284 284 284 285 285 286 287 288 288 288 289 289 289 289 289 288 288
284 284 283 283 283 283 282 282 282 282 281 281 281 281 281 282 283 283 284 284 284 284 284 284 284 284 284 286 287 289 289 289 289 289 289 289 288 288
283 283 282 282 282 282 281 281 281 281 281 281 281 282 283 284 284 284 285 285 285 286 285 285 285 284 282 282 285 288 287 289 289 289 289 288 289 288
282 282 282 282 281 281 281 281 281 281 281 282 283 284 284 284 285 285 286 286 286 286 286 285 285 283 282 282 282 286 287 286 288 288 288 288 288 288
282 282 282 281 281 281 281 281 281 281 281 282 283 284 285 285 285 285 286 286 286 287 287 286 285 284 284 284 284 286 287 288 288 288 287 287 288 288
282 282 281 281 281 281 281 281 281 281 281 283 284 284 285 285 285 285 285 285 286 286 286 286 285 285 285 286 286 286 286 286 287 286 285 285 286 288
282 281 281 281 281 281 281 281 281 281 282 283 284 284 284 284 284 284 284 284 285 285 286 286 285 284 284 284 286 285 285 285 284 284 285 284 285 287
282 282 282 281 281 281 281 281 281 281 281 282 282 283 283 282 282 283 283 283 283 284 285 286 285 284 283 283 282 285 285 284 284 284 285 285 285 285
282 281 281 281 281 281 281 281 281 281 281 282 282 282 282 281 282 282 282 282 283 284 284 285 284 283 283 282 282 284 285 285 284 284 284 283 284 284
282 282 281 281 281 282 282 281 282 282 282 282 282 282 282 281 282 283 283 284 284 284 284 285 284 284 283 283 284 284 285 285 285 284 284 283 283 282
282 282 282 282 282 282 282 282 282 282 282 282 282 282 283 284 284 285 285 284 284 284 284 284 284 283 284 283 284 284 284 285 284 284 285 285 285 284

GFSNE_850_thetae_051.txt.gz
Theta_e
318 320 319 319 318 316 317 317 317 314 314 314 314 313 313 312 311 311 311 307 306 305 305 303 304 302 303 302 300 301 300 300 300 300 301 302 301 299
320 320 319 317 318 319 316 314 315 313 312 313 312 312 312 310 309 307 307 306 304 302 302 301 302 301 302 300 299 299 299 299 299 300 299 297 298 298
313 313 314 313 312 314 315 314 313 311 310 309 309 309 309 308 306 304 300 300 300 300 299 300 300 300 300 299 298 298 298 298 299 297 295 296 296 297
311 311 310 310 310 309 309 310 309 309 308 307 307 307 306 305 304 300 299 299 298 299 299 299 298 299 298 297 296 297 297 296 295 295 293 293 294 295
309 308 307 306 307 307 307 307 307 307 306 305 304 303 302 302 301 300 299 299 298 298 298 297 297 298 298 297 295 294 294 294 291 291 292 292 292 293
307 306 306 306 305 306 306 306 306 304 303 301 301 300 300 300 300 299 297 297 297 297 297 297 297 297 297 294 292 291 289 288 288 288 289 290 290 290
305 304 304 303 303 302 302 302 301 301 300 300 299 299 298 299 298 297 296 296 296 295 295 296 294 291 289 288 287 287 286 286 286 287 287 288 289 291
302 301 300 300 299 299 299 299 300 299 299 298 298 297 297 296 295 295 294 294 292 291 289 288 288 287 287 286 286 286 286 286 286 287 288 290 291 291
300 299 298 298 297 297 297 297 297 297 296 295 295 294 293 291 290 288 288 287 287 287 286 286 286 285 285 285 285 286 287 287 288 288 288 289 290 290
290 289 289 288 287 287 287 287 286 286 286 286 286 286 286 286 286 286 286 285 285 285 284 284 285 285 286 287 287 288 288 288 288 288 288 289 289 289
288 287 287 286 286 286 285 285 285 285 285 285 286 286 286 286 285 285 284 283 283 283 283 283 285 286 287 288 288 288 288 288 288 288 288 288 288 288
287 286 286 285 285 284 284 284 284 284 284 284 284 284 284 283 283 282 282 282 282 284 285 285 285 285 287 287 287 287 288 288 287 288 288 288 288 289
286 285 285 284 284 284 283 283 283 283 283 282 282 282 282 282 282 282 282 283 284 284 284 284 284 284 284 286 288 287 287 287 288 288 288 288 289 289
285 284 284 283 283 283 283 282 282 282 282 282 282 282 282 282 282 283 284 284 284 285 285 284 285 285 284 285 286 288 288 288 288 288 288 288 289 289
284 283 283 283 283 282 282 282 282 282 282 282 282 282 283 284 284 285 285 285 285 286 286 286 285 285 283 284 286 287 287 288 288 289 288 288 288 288
283 283 283 283 282 282 282 281 281 281 281 282 282 283 284 284 285 285 286 286 286 286 285 285 285 285 285 285 284 288 288 286 288 288 288 288 289 289
283 283 283 283 282 282 281 281 281 281 281 281 282 283 285 285 285 285 285 285 286 286 287 286 285 284 284 284 284 286 287 288 288 287 286 286 287 288
283 283 283 282 282 282 282 281 281 281 281 281 282 284 285 285 285 285 285 285 284 285 285 285 284 284 285 286 285 286 286 286 287 286 286 286 286 287
283 283 282 282 282 282 281 281 281 281 281 281 282 282 283 284 284 284 284 283 283 284 284 284 284 284 284 284 285 285 285 286 285 285 285 285 285 286
283 283 283 282 282 282 282 281 282 281 281 281 281 282 282 282 282 282 282 282 282 283 284 285 286 285 283 283 283 285 284 285 284 285 285 285 285 286
283 283 283 283 283 282 282 282 282 282 282 282 282 281 281 281 282 282 282 282 281 283 284 285 285 284 283 282 282 285 285 285 285 285 285 284 285 285
283 283 283 283 282 282 282 282 282 282 282 282 282 281 281 281 281 282 282 284 284 284 285 285 285 284 284 283 284 284 285 285 285 285 285 284 283 282
284 284 283 283 283 282 282 282 282 282 282 282 282 282 283 283 284 285 285 284 284 284 284 284 284 284 284 284 284 284 284 284 284 284 285 285 285 284

GFSNE_850_thetae_054.txt.gz
Theta_e
321 320 320 322 318 317 317 317 314 315 314 312 312 312 312 312 312 311 311 310 309 309 308 307 306 306 305 304 303 303 302 302 302 302 302 302 302 302
318 318 319 320 318 316 314 314 314 313 311 311 310 309 308 308 308 309 308 308 306 306 305 305 303 302 302 303 301 301 301 300 300 300 300 300 301 301
313 313 312 312 313 311 310 311 311 310 310 310 309 308 308 307 307 307 306 304 303 302 304 303 301 300 301 300 299 299 300 299 299 299 299 299 299 299
309 309 309 308 307 307 307 307 308 308 307 307 307 307 306 306 305 304 302 301 300 301 300 299 299 299 298 298 298 297 298 298 298 297 297 297 296 295
308 307 307 307 306 305 305 305 305 305 305 305 303 304 304 303 303 302 301 299 298 298 298 298 298 298 297 297 296 296 296 296 296 295 296 294 292 293
307 306 306 306 305 305 305 305 305 304 304 303 302 302 302 301 301 300 299 298 298 298 298 298 297 296 296 296 296 296 296 296 294 292 289 289 289 290
305 304 303 303 303 303 303 302 302 301 300 299 299 299 299 299 298 298 297 297 296 296 296 295 295 296 295 294 292 290 289 288 287 287 286 288 287 288
302 301 301 301 300 300 300 299 299 298 298 298 297 297 296 295 295 294 294 294 293 292 292 291 290 289 288 287 287 287 286 286 285 286 285 285 287 290
294 293 292 292 291 290 289 289 290 289 289 288 288 288 289 288 288 287 287 286 286 286 286 286 286 286 285 285 285 285 285 285 286 287 288 289 290 291
289 288 288 287 287 287 287 286 286 286 286 286 286 286 286 286 286 286 285 285 284 284 283 284 284 284 285 286 286 287 287 287 287 288 288 289 289 290
289 288 287 286 286 286 286 285 285 285 284 284 284 285 285 285 285 284 284 283 283 283 283 284 285 286 287 287 288 288 288 288 288 288 288 288 288 289
287 287 286 286 285 285 285 285 284 284 284 284 283 283 283 283 282 282 282 282 282 284 285 285 285 286 287 287 287 287 288 288 288 288 288 288 288 288
287 286 286 285 285 284 284 284 284 284 283 283 283 282 282 282 282 282 282 283 284 284 284 284 285 285 285 286 288 288 287 287 287 288 288 288 288 288
286 286 285 285 284 284 284 283 283 283 283 282 282 282 282 282 283 283 284 284 285 285 284 284 284 285 285 285 287 288 288 287 287 287 288 287 287 288
286 285 285 284 284 283 283 283 282 282 282 282 282 282 283 284 285 285 285 285 285 286 286 285 285 285 285 285 286 288 288 289 289 288 288 287 287 287
285 285 284 284 284 283 283 282 282 282 282 282 282 283 283 284 285 286 286 286 286 286 285 284 285 285 286 286 286 287 287 286 288 287 287 288 288 288
285 284 284 284 283 283 282 282 282 282 282 282 282 282 283 285 286 286 286 286 286 286 286 285 283 284 284 285 285 286 287 287 287 287 286 286 287 287
284 284 284 283 283 283 283 282 282 282 281 281 281 282 282 283 284 284 284 285 285 285 285 284 283 283 284 286 286 286 286 286 287 286 286 285 286 287
285 284 284 283 283 283 282 282 282 282 282 281 281 281 281 282 282 282 282 282 283 283 284 283 283 283 284 284 286 285 285 286 286 286 285 285 286 286
285 284 284 283 283 283 283 282 282 282 282 282 281 281 281 281 281 281 281 281 282 282 284 284 285 284 283 283 282 286 286 285 284 285 285 285 286 286
285 284 284 284 283 283 283 283 282 282 282 282 282 281 281 281 281 281 281 281 281 283 285 285 285 284 283 282 282 285 286 285 285 284 285 284 285 286
285 285 284 284 284 283 283 283 283 283 283 282 282 282 282 282 282 282 283 284 284 284 284 285 285 284 284 283 284 284 285 285 285 285 284 284 284 283
286 286 286 285 285 285 285 285 285 285 284 284 284 284 284 284 284 284 284 284 284 284 284 284 284 283 283 283 284 284 284 284 284 285 285 285 285 285

GFSNE_850_thetae_057.txt.gz
Theta_e
324 324 323 320 319 318 319 317 315 314 313 312 311 310 310 310 309 308 309 309 309 308 309 309 311 310 311 308 308 307 307 305 304 304 303 303 303 303
319 319 319 319 317 316 316 314 313 312 312 311 311 309 308 308 307 307 306 307 307 307 307 307 308 308 307 306 305 304 304 305 303 302 301 302 302 302
313 313 313 313 314 313 310 310 309 310 310 309 308 308 307 307 306 305 305 306 305 305 304 305 306 306 305 304 304 301 301 301 301 300 300 300 301 301
309 310 309 308 308 308 307 307 306 307 306 306 306 306 305 305 305 305 305 305 304 302 302 304 304 303 303 302 300 300 300 300 299 299 299 299 299 299
307 307 307 307 307 306 306 305 304 304 304 305 305 304 303 303 302 303 304 303 303 301 300 301 300 300 300 299 298 298 297 297 297 297 297 297 297 297
307 307 306 306 306 305 305 305 304 304 304 303 302 302 301 300 301 301 302 301 301 300 299 299 299 299 298 298 297 297 297 296 296 296 296 296 295 291
305 304 304 303 303 303 303 303 302 302 301 300 298 298 298 299 299 298 298 297 297 297 297 297 297 296 296 296 296 296 295 295 295 292 290 288 287 288
302 301 300 299 299 298 298 298 297 297 297 297 297 296 296 296 295 294 293 291 290 289 289 289 289 289 289 289 289 288 288 287 287 287 286 286 286 287
292 291 290 290 289 289 288 288 288 288 288 287 287 287 287 287 287 286 286 286 286 286 285 286 285 285 285 285 285 285 285 285 285 285 285 286 287 289
289 288 288 288 288 288 287 287 286 286 286 286 286 286 286 286 286 285 285 285 284 284 284 284 284 285 286 286 286 287 287 287 287 287 288 289 290 290
288 288 287 287 287 287 286 286 286 285 285 285 285 284 284 284 284 284 284 283 283 283 284 285 286 287 287 287 287 288 288 288 287 287 288 288 289 289
287 287 286 286 286 286 285 285 285 285 285 284 284 284 284 283 283 283 283 283 283 284 285 285 286 286 287 287 287 288 287 288 288 288 288 288 288 288
287 286 286 285 285 284 285 285 285 284 284 284 284 283 283 283 283 283 283 284 284 284 285 285 285 285 285 286 288 288 288 287 287 287 288 288 288 288
286 286 286 285 284 284 284 284 284 283 283 283 283 283 283 283 284 285 285 285 285 285 285 285 285 285 285 286 288 288 288 288 288 288 287 287 287 288
286 285 285 285 284 284 283 283 283 283 283 283 283 283 283 284 285 285 285 286 286 286 286 286 286 286 286 286 287 287 288 289 288 289 288 288 288 287
286 285 285 285 285 284 283 283 283 283 283 283 283 283 283 284 285 285 286 286 286 286 286 285 285 285 285 286 286 287 287 287 288 287 287 288 288 288
286 285 285 284 284 284 284 283 283 283 283 282 282 283 283 283 283 284 285 285 286 286 286 284 283 284 285 284 285 286 287 287 287 287 287 287 288 288
286 285 285 284 284 284 284 283 283 283 283 282 282 282 282 282 282 283 283 283 284 284 284 284 283 283 283 285 286 287 287 287 286 286 286 286 287 287
286 285 285 285 284 284 284 283 283 283 283 282 282 282 282 282 282 282 282 282 283 283 284 283 283 282 283 284 286 286 286 286 286 286 286 286 286 287
286 285 285 285 284 284 284 284 283 283 283 283 282 282 282 282 282 282 282 282 282 282 283 284 284 284 283 283 282 286 286 285 285 285 286 286 286 286
286 286 285 285 285 285 284 284 284 283 283 283 283 282 282 282 282 282 282 282 282 283 284 286 285 284 283 283 283 285 285 286 285 285 285 284 285 285
286 286 286 286 285 285 285 285 285 285 285 285 285 284 284 284 284 284 284 284 284 284 284 284 284 283 283 283 284 284 284 284 285 285 284 284 284 283
286 286 286 286 286 286 287 288 288 288 287 287 286 286 286 285 285 285 284 284 284 284 283 283 283 283 283 283 283 283 283 284 284 284 285 285 285 285

GFSNE_850_thetae_060.txt.gz
Theta_e
319 321 321 322 323 322 321 318 317 317 315 313 312 312 311 310 309 309 307 307 307 308 309 308 308 309 311 313 312 311 311 309 308 308 307 306 305 305
317 318 319 318 319 320 319 317 315 314 313 312 311 311 310 309 308 307 306 305 306 306 306 307 307 307 308 310 310 309 309 308 308 307 304 304 304 304
314 314 315 314 314 314 314 313 312 310 309 310 309 308 307 307 306 306 305 305 305 305 305 305 306 307 308 306 307 306 306 305 305 305 304 303 303 303
310 310 311 310 309 309 309 309 307 307 306 306 306 306 306 306 305 304 304 304 304 304 303 303 305 305 305 305 305 305 303 303 301 301 301 302 301 301
308 308 308 307 307 307 307 307 306 305 304 304 304 304 304 303 303 303 303 303 304 303 303 302 303 303 303 303 303 303 302 300 300 300 299 300 299 299
307 307 307 307 307 306 306 305 305 305 304 304 302 302 301 301 301 301 301 301 301 301 301 301 301 300 300 300 300 300 299 298 298 297 297 297 297 297
306 306 305 305 305 304 304 304 304 303 302 300 298 298 298 298 298 298 297 297 297 297 298 298 298 299 299 298 298 298 298 297 297 297 296 296 296 295
303 302 300 298 296 294 294 295 294 293 295 296 296 295 294 293 291 290 288 288 289 289 288 287 288 288 288 288 289 289 290 290 291 291 290 289 288 287
294 292 291 290 289 289 289 289 288 288 288 288 287 287 287 287 287 287 287 286 286 286 286 286 286 285 285 286 286 286 286 286 286 286 286 285 285 285
291 290 289 289 289 288 288 287 287 287 287 287 286 286 286 286 286 286 285 285 285 285 284 285 285 286 287 287 288 287 287 287 287 286 286 287 288 290
290 289 289 288 288 287 287 286 286 286 286 286 285 285 285 284 284 284 284 284 284 284 285 286 286 287 288 288 288 288 288 288 288 288 288 289 289 289
288 288 288 287 287 287 286 285 285 285 285 285 284 284 284 284 284 283 283 283 284 285 286 286 287 287 288 287 288 288 288 288 288 288 288 288 288 288
287 287 287 287 286 286 286 285 285 284 284 284 284 284 284 284 284 284 284 285 285 285 286 286 286 286 286 287 288 288 288 288 288 288 288 288 288 288
287 287 287 286 286 286 285 285 285 284 284 284 284 284 284 284 284 285 285 286 286 286 286 286 286 286 286 287 287 288 288 288 288 288 288 289 288 287
287 287 286 286 286 285 285 285 284 284 284 283 283 283 284 284 285 285 286 286 286 286 286 286 286 286 286 286 287 287 287 288 288 288 288 288 288 288
287 286 286 286 286 285 285 284 284 284 283 283 283 283 283 284 284 285 286 286 286 286 286 286 286 286 286 286 286 287 287 286 287 287 287 288 288 288
286 286 286 286 285 285 284 284 284 284 284 283 283 283 283 283 283 284 284 284 285 285 284 284 284 284 284 285 285 286 286 286 287 287 286 287 288 288
287 286 286 286 285 285 284 284 284 284 284 284 283 283 283 283 283 283 283 283 283 283 283 283 282 282 283 285 286 287 287 287 286 286 286 286 287 288
287 286 286 285 285 285 285 284 284 284 284 283 283 283 283 283 282 282 282 282 282 283 283 282 282 282 282 283 286 286 286 286 286 285 285 286 286 287
287 286 286 285 285 285 284 284 284 284 284 283 283 283 283 282 282 282 282 282 282 283 283 283 283 284 284 284 283 285 284 285 285 285 285 286 286 286
286 286 286 286 286 285 285 285 285 284 284 284 284 283 283 283 283 284 284 284 284 284 285 285 285 284 283 283 283 285 285 285 285 285 284 284 284 285
286 286 286 286 286 286 285 286 286 286 287 287 286 286 285 285 286 286 285 285 285 285 285 285 285 284 284 283 283 283 283 284 284 284 284 284 284 284
286 285 286 286 286 286 286 288 288 288 287 287 287 286 286 285 285 285 284 284 284 284 283 283 283 282 282 282 282 282 283 284 284 284 285 285 285 285

GFSNE_850_thetae_063.txt.gz
Theta_e
314 319 319 321 319 321 322 321 321 318 317 316 314 313 312 312 311 310 308 308 307 306 307 308 309 309 309 309 309 312 314 312 311 311 313 310 309 308
315 316 319 320 319 319 319 319 318 317 316 314 313 312 311 311 309 308 307 307 306 304 306 306 306 307 307 308 308 310 311 311 309 309 308 307 307 306
315 315 315 314 315 316 316 315 314 312 312 311 310 310 310 309 307 306 306 306 305 305 305 304 305 305 306 307 308 308 309 309 309 309 308 308 306 305
310 310 311 311 311 310 309 310 310 309 308 307 307 307 306 306 306 305 305 305 304 304 303 303 303 304 306 306 306 306 307 307 306 305 305 305 304 304
309 309 309 308 308 307 307 308 307 307 306 305 305 305 304 305 304 304 304 303 303 303 303 303 302 303 303 304 304 304 304 303 303 303 302 301 301 300
308 307 307 307 307 307 307 306 306 305 305 304 303 302 302 302 302 302 301 301 301 301 300 301 301 301 301 301 302 301 301 301 301 300 300 299 299 300
307 307 306 306 306 305 305 304 304 303 302 301 299 298 298 298 298 298 297 296 294 293 295 297 298 298 298 298 298 299 299 299 299 299 298 297 298 297
305 304 303 299 296 296 294 295 295 294 294 295 295 295 294 293 291 290 289 288 289 289 289 288 288 288 288 288 289 288 289 290 292 294 295 295 295 294
300 296 293 291 291 290 291 290 290 289 289 288 288 289 289 288 287 287 287 287 287 287 286 286 287 287 287 287 287 287 287 287 287 287 287 287 287 287
291 290 290 290 290 290 289 289 289 289 288 288 287 288 287 287 287 286 286 286 286 286 286 286 286 287 288 288 289 289 288 288 288 288 287 287 287 286
289 289 289 289 289 289 288 288 288 287 287 287 287 287 286 286 285 285 285 285 285 286 286 287 287 288 288 289 289 289 289 289 289 289 289 289 289 288
289 289 289 289 289 288 287 287 287 286 286 286 286 286 286 286 285 285 284 284 284 286 288 287 287 288 288 289 289 289 289 289 289 289 288 288 288 289
289 289 289 288 288 287 286 286 286 286 286 285 285 285 285 285 285 285 285 285 286 286 287 287 287 287 287 288 289 289 289 289 289 289 289 289 288 288
288 289 288 288 287 286 286 286 286 285 285 285 285 284 284 285 285 285 286 286 286 287 287 287 287 287 287 288 288 288 288 288 288 289 289 289 289 289
288 288 288 287 287 286 286 286 285 285 285 285 285 284 284 285 285 285 286 287 287 287 287 287 287 287 287 287 288 288 287 288 287 288 288 288 288 289
288 288 288 287 286 286 286 285 285 285 285 285 284 284 284 284 284 285 285 286 286 286 287 286 286 286 286 286 286 287 287 286 287 287 286 287 288 288
288 288 287 287 287 287 286 285 285 285 285 284 284 284 284 283 284 284 284 284 284 284 284 285 285 285 285 285 285 286 286 286 286 287 287 287 288 288
287 287 287 287 287 286 285 285 285 285 284 284 284 284 283 283 283 283 283 283 284 284 283 283 282 282 283 285 285 286 286 286 287 286 286 286 287 288
287 287 287 287 286 286 286 285 285 284 284 284 284 284 283 283 283 283 283 283 283 283 283 282 282 282 281 282 285 285 286 286 286 286 285 285 285 286
288 287 287 287 286 286 286 285 285 285 285 284 284 284 284 283 283 283 283 283 283 284 284 283 283 283 283 284 283 285 284 285 284 284 285 285 285 285
288 287 286 286 286 286 286 285 285 285 285 285 285 285 285 285 285 285 285 285 285 285 286 286 285 283 282 282 282 284 285 284 284 283 284 284 284 285
287 287 286 285 285 286 286 286 286 286 286 287 287 287 287 287 287 287 286 286 285 285 284 284 284 283 283 283 283 283 284 285 285 284 283 283 283 282
290 290 288 285 285 285 285 286 286 287 287 287 287 287 287 287 287 286 286 285 284 284 283 283 283 282 282 282 282 282 283 284 284 284 285 285 284 284

GFSNE_850_thetae_066.txt.gz
Theta_e
310 313 313 316 318 318 318 316 321 320 319 318 316 316 314 312 311 311 310 308 308 307 306 305 306 307 309 309 309 309 309 310 314 314 311 311 313 312
313 314 314 315 316 316 320 317 319 319 318 316 315 314 313 312 310 308 308 307 306 306 305 305 305 306 306 307 308 308 309 310 310 310 310 311 311 311
312 312 312 313 313 314 315 316 316 315 314 314 313 311 310 308 308 307 306 306 305 304 304 303 303 304 304 305 306 307 307 309 309 309 309 309 309 308
309 310 311 311 311 311 311 312 313 312 311 309 307 306 307 306 306 305 305 304 304 304 303 303 303 302 303 304 306 307 307 307 308 307 306 305 304 303
308 309 309 309 309 308 307 308 308 308 307 307 306 305 305 305 304 304 303 303 303 303 303 303 302 301 302 303 303 304 304 304 305 304 303 303 302 301
308 307 307 307 307 307 306 306 306 306 306 305 304 302 302 303 303 303 302 302 301 300 299 300 300 300 300 301 301 302 302 302 302 301 301 301 301 300
306 306 306 306 306 306 306 306 305 305 304 303 302 300 298 297 297 297 297 296 294 292 291 291 292 294 295 297 298 299 299 299 299 299 299 299 299 299
305 305 304 303 301 300 300 298 298 296 295 296 295 293 293 293 292 290 290 289 289 289 289 288 288 288 288 288 288 288 288 288 288 289 290 292 293 294
303 302 299 294 291 291 291 290 290 290 289 289 289 290 290 290 289 288 288 288 288 287 288 287 287 287 287 287 288 288 288 288 287 287 287 287 287 287
297 293 290 290 290 290 290 290 290 289 288 288 288 288 288 288 288 287 287 287 287 287 287 287 287 288 289 289 289 289 289 289 289 289 289 288 288 287
290 290 290 290 290 289 289 288 289 288 288 287 287 287 287 286 286 286 286 286 286 287 287 287 288 289 289 289 289 289 289 289 290 290 289 289 289 289
289 289 289 289 289 288 288 288 288 288 288 287 286 286 286 286 286 286 286 286 286 286 288 288 288 288 289 289 289 289 289 289 290 289 289 289 289 289
290 289 289 289 288 287 287 287 287 287 287 286 286 286 286 286 286 286 286 286 287 287 287 287 287 288 288 288 289 288 289 289 289 289 289 289 289 289
289 289 289 289 288 287 287 287 287 286 286 286 286 286 285 285 285 285 285 286 287 287 287 287 287 287 287 288 288 288 288 288 288 289 289 289 289 289
289 289 289 288 288 287 287 287 287 286 286 286 286 285 285 285 285 285 285 286 286 287 287 287 287 287 287 287 287 288 288 288 287 288 287 288 289 288
288 288 288 288 287 287 287 287 287 286 286 286 285 285 285 285 284 285 285 286 286 286 286 286 286 286 286 286 286 287 287 286 287 286 286 288 288 288
288 288 288 288 288 288 287 287 286 286 286 285 285 285 284 284 285 285 285 285 285 285 285 285 285 285 285 285 285 286 286 286 286 287 287 287 288 288
287 288 288 288 288 288 287 287 286 286 285 285 285 285 284 284 285 284 284 284 284 284 284 284 283 283 283 285 285 286 286 286 286 286 286 285 286 287
289 288 288 288 288 288 287 286 286 285 285 285 285 285 284 285 284 284 284 284 284 284 284 283 282 282 282 283 286 285 286 286 286 286 285 285 285 286
289 289 288 287 287 287 287 286 286 285 285 285 285 285 284 285 285 285 284 284 284 285 285 285 285 284 282 283 282 286 285 284 284 284 284 284 284 284
289 289 288 287 286 286 286 286 285 285 285 285 285 285 286 286 287 287 287 286 286 286 286 286 285 284 282 281 281 283 284 284 283 284 284 284 284 284
289 290 290 289 287 286 285 285 285 285 285 285 286 287 287 287 287 287 287 286 286 285 285 285 284 283 283 282 282 283 284 285 285 284 284 284 283 281
293 294 293 289 291 292 286 287 286 285 287 285 286 287 287 287 286 286 286 286 285 285 284 284 283 283 282 282 281 282 283 283 283 284 285 285 284 284

GFSNE_850_thetae_069.txt.gz
Theta_e
310 311 310 314 315 315 318 318 319 320 317 318 318 317 316 315 313 311 309 309 308 307 306 305 305 307 308 309 310 310 309 309 310 312 315 315 315 312
309 309 310 314 314 314 316 315 317 319 318 317 317 316 314 312 311 310 309 307 307 306 305 304 304 304 306 307 307 307 308 309 310 312 313 311 311 312
308 308 310 312 312 314 315 316 317 317 317 316 314 313 312 311 308 306 307 306 305 304 304 303 303 303 303 304 305 305 306 306 307 309 308 309 309 311
308 308 308 310 310 310 311 312 311 313 314 313 312 310 308 306 305 305 305 304 304 304 303 303 303 302 302 303 304 305 306 306 308 308 308 308 308 307
308 308 308 308 308 308 309 309 308 309 309 309 308 306 305 304 304 304 304 302 302 302 302 302 302 302 302 302 303 303 303 303 303 304 305 304 304 303
307 307 307 307 307 307 307 306 306 306 307 306 306 304 303 302 302 302 302 301 301 300 299 299 299 299 300 301 301 302 301 301 301 302 302 302 302 302
306 306 306 306 306 306 306 306 306 306 305 305 304 302 300 299 296 297 297 297 295 293 291 290 290 290 291 292 295 298 299 299 299 300 300 300 300 301
305 305 305 305 305 304 304 303 302 301 300 300 299 296 293 293 293 291 290 290 288 289 289 289 289 288 288 288 288 288 288 288 288 288 288 288 289 290
303 303 302 300 295 293 291 290 290 290 290 290 291 291 291 291 290 289 289 288 288 288 288 288 288 288 287 288 288 288 289 289 288 288 288 287 287 287
301 300 297 291 290 289 290 290 290 289 289 289 289 289 289 289 288 288 288 287 287 287 287 287 287 288 288 289 289 289 289 289 289 290 290 289 289 289
295 291 289 289 290 289 289 289 289 289 288 288 288 288 288 287 287 287 287 286 286 287 287 288 288 289 289 289 289 289 289 289 290 290 290 289 289 289
289 289 289 289 289 288 288 289 288 288 288 288 288 287 287 287 287 287 286 285 285 286 288 288 288 289 289 289 289 289 289 289 289 289 289 290 290 290
289 289 289 289 288 288 288 288 287 288 288 287 287 287 287 287 286 286 286 286 286 287 287 287 288 288 288 288 288 288 289 289 289 289 289 289 289 289
289 289 289 288 288 287 287 287 287 287 287 287 286 286 286 287 286 285 285 286 287 287 287 287 287 288 288 288 288 288 288 288 288 288 288 288 289 289
288 288 288 288 288 288 288 287 287 287 287 286 286 286 286 286 286 285 285 286 286 287 287 287 287 287 287 288 288 288 288 288 287 288 287 288 288 289
288 288 288 288 288 288 288 288 287 287 287 286 286 285 286 286 285 285 285 285 285 285 285 285 285 285 286 286 287 287 287 286 286 286 286 287 287 288
288 288 288 288 289 288 288 288 287 287 287 286 286 285 285 285 285 285 285 285 285 285 284 284 284 284 285 285 286 286 286 286 286 286 286 287 288 288
288 288 288 288 288 288 288 288 287 287 286 286 285 285 285 285 284 284 284 284 285 284 284 283 283 284 284 286 285 286 286 286 286 286 286 286 287 287
288 288 288 288 287 288 288 288 287 286 287 286 285 285 285 284 284 284 284 284 284 284 284 283 283 283 283 285 286 286 286 286 286 285 285 284 285 286
289 289 289 288 288 287 287 287 286 287 286 286 285 285 284 284 285 285 284 284 285 285 285 285 285 285 284 285 285 286 284 284 284 284 284 284 284 285
289 289 290 289 288 287 286 289 288 286 286 286 286 285 285 285 286 286 287 287 286 287 287 287 285 285 284 282 282 285 285 284 283 283 284 284 285 285
290 290 289 290 291 290 292 291 287 285 286 288 286 285 286 286 287 288 286 286 286 286 286 286 285 285 284 282 282 283 284 285 285 284 284 283 283 282
296 296 294 291 291 291 287 288 290 288 287 288 285 288 285 289 289 288 286 285 285 285 286 286 285 285 284 283 282 282 283 284 284 284 285 284 284 283

GFSNE_850_thetae_072.txt.gz
Theta_e
311 310 309 310 311 311 315 315 316 318 316 316 318 316 316 315 315 313 312 310 308 308 307 306 305 305 309 309 310 310 310 310 310 310 312 315 317 316
310 309 309 310 310 311 313 313 314 317 317 316 316 316 316 313 313 312 310 310 309 307 305 304 304 304 305 306 307 307 308 309 310 312 314 316 316 315
309 308 308 309 309 311 312 313 316 314 314 317 315 313 312 312 311 309 309 307 306 305 304 303 303 302 303 304 304 305 306 306 307 309 311 312 313 312
308 308 308 308 309 309 309 310 311 312 313 313 313 312 311 310 308 306 305 305 305 304 303 303 302 302 302 302 303 304 305 305 306 308 307 307 307 307
308 308 308 307 307 307 308 308 309 310 309 310 311 310 308 306 304 304 304 304 303 302 302 302 301 301 301 301 302 302 303 304 304 304 305 306 306 307
307 307 307 307 307 307 307 307 307 307 307 307 307 306 305 304 303 303 302 302 301 300 299 299 298 298 299 300 300 302 302 301 301 301 301 303 303 303
306 306 306 306 306 306 305 305 305 305 305 305 305 304 302 302 300 300 299 299 297 296 293 291 290 290 290 291 294 297 299 300 300 300 301 301 301 301
304 304 304 305 305 305 305 304 304 304 304 303 302 302 299 295 294 293 292 291 289 289 289 289 289 289 288 288 288 288 288 289 289 290 291 292 293 294
301 301 301 303 302 298 296 294 293 292 292 292 292 293 292 292 292 291 290 289 288 288 288 288 288 288 288 288 288 288 289 289 289 288 288 288 288 288
300 299 301 300 296 291 289 290 290 290 290 289 289 290 290 290 289 289 288 288 288 287 288 288 287 287 288 289 289 289 289 289 289 290 290 290 290 290
299 299 298 292 289 289 289 289 289 289 289 289 288 288 288 287 287 287 287 287 286 287 287 288 288 288 289 289 289 289 290 289 290 290 290 290 290 290
298 293 289 289 290 289 289 289 288 288 289 288 288 288 287 287 287 287 286 286 286 286 287 288 289 289 289 289 289 289 289 289 289 289 290 290 290 290
289 288 289 289 289 289 289 288 288 288 288 287 287 287 287 286 286 286 286 286 286 287 288 288 288 288 288 288 289 288 289 289 289 289 289 289 289 290
288 289 289 289 289 288 288 287 287 287 287 287 287 287 286 286 286 285 285 285 286 287 287 287 288 288 288 288 288 288 288 288 288 288 288 288 288 289
288 288 288 288 288 287 287 287 287 287 287 287 286 286 286 286 285 285 285 285 285 286 286 287 287 288 287 287 287 288 288 287 287 287 287 288 288 288
287 287 287 287 288 288 288 287 287 287 287 286 286 286 286 286 285 285 285 284 285 285 285 285 285 286 286 286 286 287 287 286 286 286 286 287 287 287
288 288 288 288 288 288 288 288 288 288 287 287 286 286 286 285 285 285 284 284 284 284 283 283 284 284 285 285 286 287 286 286 286 286 286 287 287 287
288 288 288 288 287 287 287 288 288 288 287 287 287 286 286 285 285 285 284 284 284 284 283 283 283 283 284 286 286 287 287 287 286 286 286 286 287 287
288 288 288 288 287 287 287 288 288 287 287 288 287 286 285 285 285 285 285 285 284 284 283 283 283 283 284 286 287 287 287 286 286 285 285 284 285 286
288 289 289 288 288 287 287 287 287 286 286 287 287 286 285 285 285 285 284 285 285 286 286 285 285 285 285 285 286 287 285 285 284 284 285 284 284 285
289 289 289 288 288 288 288 287 287 287 291 290 286 286 287 285 285 285 285 286 286 287 287 287 286 285 285 284 285 287 286 284 283 283 284 284 285 286
290 290 291 292 292 291 290 288 288 290 292 288 285 287 288 285 284 286 288 288 288 287 287 286 286 285 285 284 284 285 286 285 283 283 284 283 283 283
293 295 294 293 293 294 292 290 291 290 289 289 288 286 288 285 287 287 287 287 287 287 286 286 285 285 285 283 283 284 285 284 284 285 286 284 283 283

GFSNE_850_thetae_075.txt.gz
Theta_e
311 311 310 310 309 310 312 311 314 315 315 317 317 316 316 315 315 315 314 312 311 309 309 307 306 305 309 310 309 310 311 312 311 310 311 314 316 317
311 310 310 309 309 310 309 310 312 313 312 314 315 315 315 315 314 313 312 311 311 308 308 306 305 304 305 307 307 307 308 309 311 311 310 312 315 316
310 309 309 308 308 309 309 311 311 312 315 312 314 314 314 313 311 311 311 309 307 306 305 305 304 302 303 304 304 305 306 306 307 310 312 313 314 315
309 309 308 308 308 308 308 309 309 311 311 311 312 312 312 311 310 309 308 307 305 304 304 303 303 302 301 302 303 303 304 305 305 306 309 311 311 312
308 307 307 307 307 306 307 307 307 307 308 308 309 309 310 309 308 306 305 304 304 303 302 302 301 301 302 301 301 302 302 304 304 305 306 306 306 307
306 307 306 306 306 306 305 306 306 305 306 307 305 307 307 306 305 304 303 303 302 301 300 300 300 299 300 300 300 301 301 301 302 302 302 302 303 305
306 306 306 305 305 306 305 305 305 305 305 304 304 305 305 304 304 302 301 301 300 299 298 296 293 292 291 292 295 297 299 301 301 301 301 300 300 301
304 303 303 302 303 305 305 305 304 304 303 302 302 302 302 302 300 295 294 295 293 291 290 290 290 290 289 289 288 289 289 290 293 297 299 299 300 300
301 300 301 300 300 303 301 298 298 300 299 300 299 298 297 295 293 293 292 290 289 289 288 288 288 288 288 288 288 288 288 288 289 288 288 288 288 288
299 299 298 299 300 298 293 290 289 289 290 289 290 291 292 292 291 291 290 289 288 288 288 287 288 288 288 288 289 289 289 289 290 290 290 290 290 290
298 298 298 299 296 290 289 289 289 289 289 289 289 289 289 289 288 288 288 287 287 287 287 287 288 288 289 289 289 289 289 289 290 290 290 290 290 290
298 298 299 294 289 289 289 288 288 288 288 288 288 288 287 287 287 287 287 286 286 286 286 287 288 288 289 289 289 289 289 289 290 290 290 290 290 290
298 296 290 288 288 289 288 287 287 288 288 287 288 288 287 287 286 286 286 286 286 286 287 288 288 288 288 288 289 289 289 289 289 289 289 289 290 290
290 288 288 288 288 288 288 287 287 287 287 287 287 287 287 286 286 286 286 286 286 286 287 287 287 287 288 288 288 288 289 288 288 289 289 289 289 289
288 288 288 288 288 288 287 286 287 287 287 287 287 287 286 286 286 286 286 286 286 286 286 287 287 287 287 288 288 288 288 288 288 288 288 288 288 288
287 288 288 288 288 288 288 287 287 287 287 287 287 286 286 286 286 286 286 286 286 286 286 286 286 286 286 286 286 287 287 287 286 287 287 288 288 287
287 287 287 288 288 288 288 288 288 288 288 287 286 286 286 286 286 286 286 286 285 285 285 285 285 285 285 285 286 286 286 286 286 286 286 287 287 286
288 288 288 288 288 288 288 288 288 288 288 287 286 286 286 285 285 285 285 285 284 284 284 284 284 284 285 286 286 286 287 287 286 286 286 286 287 287
288 288 288 288 288 288 287 287 288 288 287 287 287 286 286 286 285 285 285 284 284 284 284 284 284 284 284 286 287 287 287 287 286 286 285 284 285 286
288 288 289 288 288 288 287 287 287 287 287 287 286 286 286 285 285 284 284 284 284 284 285 285 287 286 286 286 286 288 287 287 285 285 285 284 284 285
289 289 289 289 288 288 287 287 287 287 286 286 287 290 290 287 285 284 284 283 284 285 287 288 288 287 286 285 286 287 287 286 285 285 284 283 284 285
290 289 289 289 289 288 288 291 292 290 288 287 288 291 287 284 285 285 284 283 285 287 288 288 287 286 286 286 286 286 286 286 285 284 283 282 283 283
290 289 289 290 293 294 292 291 290 288 287 290 291 290 288 285 285 287 286 285 287 287 287 287 286 285 285 284 284 285 285 285 284 284 284 283 283 283

GFSNE_850_thetae_078.txt.gz
Theta_e
312 311 311 311 310 310 310 309 314 312 312 314 313 314 316 316 316 315 314 314 313 312 311 310 309 306 307 309 309 309 310 311 313 312 312 314 315 316
311 311 311 310 309 309 309 310 310 311 314 312 312 312 314 315 314 314 313 313 312 310 310 308 306 305 304 306 306 307 307 308 310 310 312 310 314 317
311 310 309 309 309 308 308 309 309 310 310 311 311 313 311 313 312 312 311 311 310 310 307 305 305 304 302 303 304 304 305 306 307 309 311 312 313 315
310 309 308 308 308 308 308 308 308 308 309 310 311 311 311 312 310 310 309 309 308 307 305 305 304 303 302 302 303 303 304 304 305 307 309 310 313 314
308 307 307 307 307 307 306 306 306 306 306 307 307 308 308 310 310 309 309 308 306 303 303 303 302 302 302 301 301 302 302 303 304 305 306 309 310 310
306 306 306 306 305 306 305 305 305 304 304 304 304 304 305 306 307 307 306 304 303 302 302 301 301 300 300 300 300 301 301 300 302 303 304 304 305 306
305 305 305 304 303 303 303 303 303 304 303 304 303 302 303 304 304 303 302 302 300 301 300 299 298 296 295 294 296 297 299 300 300 301 301 301 300 301
303 302 301 301 301 300 300 302 303 302 302 301 301 300 302 301 301 301 300 297 298 298 297 294 292 290 290 290 289 290 290 291 296 299 300 300 300 300
299 300 300 300 300 299 300 300 298 300 301 299 300 299 299 299 299 297 294 293 292 291 289 289 289 289 289 288 288 288 288 289 289 289 289 291 294 295
298 298 298 298 299 299 298 294 290 289 289 290 291 293 293 295 293 293 293 291 290 289 288 288 288 288 288 288 288 288 289 289 289 289 289 289 289 288
299 299 298 298 298 298 293 289 289 289 289 289 289 289 289 290 290 290 289 288 288 288 288 287 288 288 288 288 289 289 289 289 290 290 290 290 290 290
299 298 297 296 297 292 289 289 289 289 288 288 288 288 287 288 287 287 287 287 287 287 287 287 287 288 288 289 289 289 289 290 289 290 290 290 290 290
299 297 297 297 290 288 289 288 288 288 288 288 288 288 288 288 287 287 287 287 287 286 287 287 288 288 288 289 289 289 289 289 289 289 289 289 289 290
297 295 292 288 288 288 289 288 288 287 287 287 287 287 287 287 287 287 287 287 287 287 286 287 288 288 288 288 288 289 289 289 289 289 289 289 289 289
293 289 288 288 288 288 288 287 287 287 287 287 287 286 286 287 286 286 286 286 286 286 287 287 288 288 288 288 288 288 288 288 288 288 288 288 288 288
292 288 287 288 288 288 287 288 288 287 287 287 286 286 286 286 286 286 286 286 286 285 286 286 286 287 287 287 287 287 286 287 287 287 287 288 288 288
291 288 287 288 288 288 288 288 288 287 288 287 287 287 286 287 287 286 286 286 285 285 285 285 285 285 286 286 287 286 286 286 286 286 287 288 287 287
291 288 287 287 287 287 288 288 288 288 288 287 287 287 286 286 286 286 286 285 285 285 284 284 285 285 285 286 287 289 288 287 287 287 287 287 288 287
292 289 288 288 288 288 288 288 287 287 287 287 287 287 287 286 286 287 286 285 286 284 284 283 283 283 284 286 288 289 289 288 287 287 286 286 287 287
293 289 289 289 289 288 288 288 287 287 287 287 287 287 287 286 286 287 287 285 284 284 284 283 284 284 286 287 289 290 288 288 287 287 286 285 286 287
295 290 289 289 289 288 288 288 287 287 287 287 287 287 286 288 291 291 287 284 285 285 284 284 285 286 287 287 287 289 287 286 286 286 286 286 286 287
296 294 290 289 289 288 288 288 288 287 288 289 289 288 287 288 289 289 284 284 286 286 284 284 287 286 285 286 286 286 286 286 286 285 285 284 283 284
297 296 291 289 289 289 289 288 288 289 291 292 291 288 288 290 290 288 284 284 286 287 285 286 286 285 285 285 285 285 285 285 285 285 286 284 283 283

GFSNE_850_thetae_081.txt.gz
Theta_e
315 313 312 311 311 311 310 310 311 311 311 311 312 313 313 312 315 315 315 314 314 314 314 312 312 309 306 309 309 310 310 311 312 313 312 312 313 315
313 312 311 311 311 310 309 309 309 312 310 310 311 311 311 312 312 314 313 313 312 312 311 311 310 306 305 305 307 307 308 308 309 311 313 313 313 314
312 311 311 311 310 309 309 308 309 309 309 310 310 310 310 312 311 311 312 311 310 310 310 310 306 305 304 303 303 305 304 306 307 309 311 313 312 314
311 311 310 309 308 308 308 308 308 309 309 309 309 309 310 311 311 311 310 309 308 308 308 307 305 304 303 302 301 303 303 305 304 307 309 310 314 316
310 309 308 308 307 307 307 307 306 307 306 306 306 307 307 307 308 309 308 307 307 307 306 303 303 302 302 302 301 301 302 303 303 304 306 309 311 312
309 308 307 307 306 306 304 305 305 305 305 304 304 304 304 305 305 306 306 306 306 305 303 301 300 300 300 301 301 301 301 301 301 303 304 306 308 308
307 307 306 305 304 303 303 303 303 304 303 303 303 302 303 303 304 305 304 304 303 302 301 300 299 299 298 298 298 298 299 300 300 300 302 303 304 303
305 304 303 301 301 301 301 300 300 301 302 302 302 301 301 301 301 302 302 301 300 298 299 299 298 296 293 291 290 290 290 293 297 300 300 301 300 300
303 302 301 301 301 301 300 299 299 301 300 300 300 300 299 300 300 300 299 299 295 294 292 290 290 290 289 289 289 288 288 289 289 289 293 298 300 300
302 300 300 300 300 300 300 300 297 293 291 291 293 295 297 297 296 296 295 293 292 291 290 289 289 289 288 288 288 288 288 289 289 289 288 288 288 289
301 300 300 300 300 299 298 298 293 289 289 289 289 289 290 291 292 292 292 291 290 289 289 288 288 288 288 288 288 289 289 289 289 289 290 290 290 290
300 299 300 299 298 297 298 291 289 289 289 289 289 288 288 288 288 288 288 288 288 287 288 287 287 288 289 289 289 289 289 289 289 289 290 290 290 290
301 301 298 297 297 298 290 289 289 289 288 288 288 288 288 288 287 287 287 287 287 287 287 287 288 288 289 289 290 290 290 289 289 289 289 289 290 290
300 300 299 299 296 290 289 288 288 288 288 288 288 288 287 287 287 287 287 287 287 286 286 287 288 288 289 289 289 289 289 289 289 289 289 289 289 289
298 297 295 292 289 288 289 288 288 288 287 287 287 288 287 287 286 286 286 286 286 286 287 287 287 287 288 288 288 288 288 288 288 288 288 289 289 289
297 296 290 288 288 288 288 288 288 288 287 287 287 287 287 286 286 286 286 286 286 287 288 287 286 286 287 287 287 287 287 287 288 288 288 288 288 288
298 297 289 288 288 288 288 288 288 288 288 287 287 287 287 286 286 286 287 287 287 286 286 286 285 285 285 286 286 287 287 289 287 287 287 288 288 287
297 297 293 288 287 288 288 288 288 288 288 287 287 287 287 286 286 286 286 287 287 287 286 285 285 284 285 285 286 288 290 290 288 288 288 289 289 288
296 297 296 290 288 287 287 288 288 288 287 287 288 288 287 286 286 286 287 287 287 286 285 284 284 284 284 285 286 288 289 290 289 289 288 288 289 289
296 296 296 294 289 288 288 288 288 287 287 287 287 288 287 287 287 287 287 287 288 286 284 284 284 283 283 284 286 290 289 288 288 287 287 287 288 289
297 297 297 296 289 288 288 288 288 288 287 287 287 287 287 287 287 286 289 290 290 286 285 287 284 282 284 286 287 289 288 287 287 286 286 286 287 288
296 296 296 297 290 289 288 288 288 287 288 288 288 287 287 287 288 287 288 290 289 285 285 286 284 283 285 286 287 287 287 286 286 286 286 285 285 286
296 296 296 296 293 289 288 288 288 288 288 288 288 289 291 291 289 289 289 290 287 285 284 286 286 284 285 285 285 286 286 285 285 285 286 285 284 285

GFSNE_850_thetae_084.txt.gz
Theta_e
324 318 314 315 312 311 311 311 311 314 313 313 313 311 313 313 313 312 313 314 314 314 313 313 313 313 312 308 309 310 310 311 312 312 313 311 311 312
319 315 315 313 312 311 311 311 310 312 312 311 311 309 310 311 311 311 311 312 312 312 312 312 311 310 309 306 306 308 307 308 309 310 312 314 313 312
315 315 313 312 311 311 310 309 309 309 309 310 310 310 309 309 310 310 311 310 310 310 310 309 309 309 306 305 304 305 305 305 306 308 310 313 314 313
315 313 311 311 311 310 309 308 308 308 308 308 309 308 308 308 310 310 310 309 309 308 308 308 308 306 304 304 302 301 303 304 305 306 309 310 312 313
312 312 311 311 310 309 308 308 308 307 308 308 307 306 306 306 306 306 307 308 307 306 306 306 306 304 303 303 302 301 302 303 304 304 306 309 313 315
311 311 310 309 308 307 307 306 306 304 305 305 305 305 305 305 305 305 305 306 306 305 305 305 303 302 302 301 301 301 301 301 302 303 303 306 309 311
310 310 309 308 307 306 306 304 303 304 304 304 304 304 303 303 303 303 304 304 304 304 303 303 301 299 299 299 299 299 299 300 300 301 301 303 305 307
309 308 307 305 304 302 301 301 302 302 302 303 303 302 302 302 302 302 302 302 302 302 302 299 299 299 298 296 294 292 291 292 296 299 300 301 302 303
306 305 304 302 301 301 301 301 301 300 300 301 301 301 301 301 300 301 301 301 300 300 296 292 293 293 292 290 290 289 289 289 289 290 294 299 300 300
305 304 303 303 301 300 301 301 300 300 298 295 296 298 299 298 298 298 298 298 297 295 293 291 290 289 289 289 288 288 288 288 289 289 289 289 291 296
304 302 302 302 301 301 301 300 300 296 292 290 290 290 290 291 293 294 294 294 293 292 290 289 288 288 288 288 288 288 288 289 289 289 289 289 289 288
303 302 302 301 300 300 299 298 299 293 289 289 289 289 289 289 290 291 291 290 290 288 288 287 287 288 288 288 288 289 289 289 290 290 290 290 290 290
302 302 302 301 299 298 297 298 292 290 289 289 289 289 288 288 288 288 288 287 287 287 287 287 287 288 288 289 289 289 290 290 290 290 290 290 290 290
301 301 301 299 298 296 297 291 289 289 289 289 289 288 288 288 288 287 287 287 287 286 286 287 288 288 288 289 288 289 289 289 290 290 290 290 289 289
300 299 299 298 297 296 294 288 288 288 288 288 288 288 288 288 287 287 287 287 287 286 287 287 287 287 288 289 288 288 288 288 289 289 289 289 289 289
299 299 298 296 295 293 288 288 288 288 288 287 287 287 288 287 287 287 287 287 287 287 287 288 288 288 287 287 287 287 287 287 288 288 288 288 288 288
299 299 298 294 290 288 288 289 288 288 287 287 287 287 287 287 287 286 286 287 287 287 288 287 288 287 286 286 286 286 286 287 288 289 290 289 289 288
298 298 298 297 292 288 288 288 288 288 288 288 287 288 288 287 287 287 287 287 288 288 288 288 288 287 286 286 286 286 287 288 289 290 290 290 291 291
297 297 297 297 296 289 288 288 288 288 288 287 287 288 288 287 287 287 287 287 288 287 287 287 287 286 285 285 286 286 287 288 289 290 290 290 290 291
297 298 298 297 296 293 289 287 287 287 287 287 288 288 288 287 287 287 287 287 287 287 287 288 286 285 284 284 284 285 287 289 289 289 289 289 289 290
299 299 298 297 297 296 292 287 287 287 287 288 287 287 287 287 287 287 287 286 286 289 289 289 285 285 286 285 284 286 288 288 287 287 287 287 288 289
299 298 298 297 296 296 294 288 288 288 288 288 288 287 287 287 287 287 286 287 287 289 290 286 285 286 286 285 285 286 287 287 287 287 286 286 286 286
298 297 296 296 296 295 294 288 288 288 288 288 288 288 287 287 287 287 290 289 287 288 289 286 284 285 287 287 286 286 286 286 286 286 286 286 286 286

GFSNE_850_thetae_087.txt.gz
Theta_e
323 323 322 322 320 314 313 311 311 313 314 314 314 313 311 312 311 313 313 312 313 313 313 313 312 312 312 312 311 308 311 309 311 311 311 313 314 309
323 321 322 321 314 314 312 311 311 311 313 313 312 311 310 309 310 310 310 310 310 311 311 311 311 311 311 310 308 306 307 308 308 308 309 311 313 315
322 323 322 316 314 313 311 311 311 310 311 312 311 310 309 308 309 309 309 309 309 310 310 310 310 309 309 308 306 305 304 306 305 304 306 309 311 314
323 322 317 315 313 311 311 311 310 309 309 309 310 308 308 308 308 308 309 310 309 309 308 308 307 307 307 306 304 303 302 301 303 305 306 309 310 313
321 319 316 315 312 311 310 310 309 308 308 308 307 308 307 306 306 306 306 307 307 307 307 306 306 305 306 304 303 302 301 302 303 304 305 308 311 313
319 316 314 312 311 310 309 308 308 307 307 306 305 306 305 305 305 305 305 305 305 305 305 304 304 304 304 302 301 301 301 301 301 302 303 305 308 310
314 312 311 310 310 309 308 307 307 306 305 304 304 304 304 304 304 304 303 304 304 304 303 303 303 302 301 300 300 300 299 300 300 300 301 303 305 307
311 310 310 309 308 306 306 305 305 304 303 303 303 303 303 303 303 302 302 302 302 303 302 302 302 300 299 299 298 296 294 293 293 297 299 300 302 303
309 308 307 307 306 304 304 303 302 301 301 301 301 301 302 302 301 301 301 301 301 301 300 299 296 296 297 295 292 290 290 290 290 290 291 297 300 301
308 307 306 305 304 303 303 302 301 300 300 300 298 299 299 300 299 299 299 298 299 298 298 296 293 290 290 289 289 288 289 289 288 289 289 289 292 297
306 305 305 304 303 303 302 301 300 299 299 296 292 291 291 293 294 295 295 296 296 294 293 292 290 289 288 288 288 288 288 288 289 290 289 289 289 289
305 305 304 303 303 301 300 300 298 299 298 294 291 290 289 290 290 291 293 293 293 292 290 289 289 288 288 288 288 288 289 289 289 290 290 290 290 290
305 305 303 302 301 299 299 299 298 298 295 290 290 290 289 290 289 290 290 290 290 289 287 287 287 287 288 289 289 289 289 289 290 289 289 290 290 290
305 304 302 301 300 299 298 297 297 295 290 289 289 289 289 289 289 288 288 288 288 288 287 287 287 288 288 289 289 289 290 290 290 290 290 290 290 290
305 303 301 300 299 298 297 296 296 290 289 289 289 289 289 289 288 288 287 287 287 287 287 287 287 288 289 289 289 289 290 289 289 289 289 289 289 289
304 302 300 299 298 297 296 295 293 289 289 288 288 288 288 288 288 287 287 287 287 287 287 287 288 288 289 289 288 288 288 288 288 288 288 288 288 289
304 300 299 299 298 296 294 295 291 289 288 288 288 288 288 287 287 287 287 287 287 287 288 289 289 289 288 288 287 286 287 287 287 288 289 291 292 291
301 300 299 299 299 298 294 292 289 289 289 288 288 287 287 287 287 287 287 287 287 287 289 290 290 290 290 288 287 286 286 287 287 289 291 292 293 292
299 299 299 299 298 297 296 290 289 289 289 289 288 287 288 288 287 287 287 287 287 288 290 290 289 289 289 288 288 286 287 287 288 288 290 291 291 291
297 298 298 298 298 298 297 293 288 288 288 288 288 288 287 287 287 287 287 287 287 288 289 289 290 290 289 286 286 287 286 286 287 289 289 290 290 290
297 298 299 298 298 297 297 296 291 288 287 287 287 288 288 287 288 287 287 286 287 287 287 288 290 289 287 286 287 288 286 286 287 288 288 288 289 289
298 298 299 298 298 298 297 296 295 292 287 287 287 287 287 287 287 287 287 287 287 287 286 288 290 290 287 286 288 287 286 286 287 287 287 287 287 287
298 298 298 298 298 297 296 295 295 293 288 287 288 288 288 287 287 287 287 287 286 288 288 288 290 289 287 286 286 287 286 286 287 287 287 287 287 287

GFSNE_850_thetae_090.txt.gz
Theta_e
326 325 325 323 322 322 322 318 313 313 313 313 314 314 313 312 311 311 311 313 312 312 313 312 313 312 312 311 311 311 311 308 309 308 310 310 311 313
325 324 323 323 322 322 318 314 313 311 311 312 313 313 312 311 310 309 310 310 310 309 310 311 311 310 311 311 311 310 308 306 306 307 307 308 308 312
325 324 324 323 321 322 315 314 313 311 311 312 313 312 312 311 309 308 309 309 309 308 309 310 309 309 309 309 308 307 306 304 304 305 304 305 307 308
325 325 324 322 323 318 315 314 312 311 310 310 310 311 310 308 307 307 307 307 308 308 308 308 308 308 308 307 306 306 304 303 302 302 304 306 310 312
325 323 322 323 320 316 315 313 311 310 310 309 310 308 308 306 306 306 306 306 306 306 306 306 306 307 307 305 305 303 303 302 301 302 304 306 309 312
323 323 321 319 316 314 312 310 310 309 308 307 309 308 305 306 306 305 305 305 305 305 304 304 305 305 305 304 303 302 302 301 301 301 302 304 307 310
321 320 316 314 313 312 310 309 309 308 308 307 307 306 304 304 304 304 304 304 304 304 304 303 303 303 303 302 301 300 299 299 300 300 300 301 305 306
318 316 314 313 311 310 309 309 308 307 306 306 305 303 302 302 303 303 303 303 302 302 303 302 302 301 301 300 299 298 297 295 293 295 298 299 301 304
314 313 311 310 309 309 308 307 305 304 303 302 302 302 301 302 303 302 302 301 301 301 301 301 300 299 294 296 297 295 291 290 290 290 290 294 298 300
311 310 309 309 308 308 306 305 303 302 302 301 300 301 301 301 301 301 300 299 299 299 299 298 298 296 292 290 289 289 289 289 288 288 289 289 291 296
309 308 308 308 306 306 304 303 302 302 301 300 301 300 297 297 297 297 297 297 296 296 297 297 294 292 290 289 289 289 289 288 288 289 289 289 289 289
308 307 306 306 305 304 303 303 302 301 301 301 299 295 292 291 291 291 292 294 295 295 293 292 291 290 289 289 288 288 288 289 289 289 290 290 290 290
307 306 306 305 305 303 302 302 301 300 300 300 297 294 291 290 290 290 291 292 293 292 289 289 289 289 288 290 289 289 289 289 290 290 290 290 290 290
306 306 305 304 303 302 301 300 299 299 298 298 293 290 290 290 290 289 290 290 289 289 288 288 288 288 289 289 290 290 290 290 290 290 290 290 290 290
306 305 303 303 302 301 301 299 299 298 297 295 290 290 289 289 289 288 288 288 287 287 287 288 287 288 289 290 290 290 290 291 290 290 290 290 290 290
305 304 303 303 301 301 299 298 298 296 297 293 289 289 288 289 289 288 288 287 287 287 287 287 287 288 289 289 290 290 290 289 289 289 289 289 289 289
302 301 300 300 299 300 298 297 297 296 297 291 289 288 289 289 288 288 287 287 287 287 287 288 288 289 290 289 290 288 288 287 288 288 288 288 291 292
299 300 299 298 299 300 299 298 297 296 296 289 289 288 288 288 288 287 287 287 287 287 287 288 289 289 290 291 291 290 288 287 287 287 288 291 292 293
297 299 299 299 299 299 299 299 299 297 295 290 289 289 288 287 287 287 286 286 286 286 287 289 290 290 290 290 291 290 288 287 287 288 289 290 291 292
296 297 299 299 299 299 298 298 297 295 292 290 289 289 288 287 288 287 287 287 286 286 287 289 290 289 290 290 289 289 288 287 287 287 288 289 290 290
296 296 297 298 298 298 298 297 297 297 295 290 289 288 288 288 287 288 287 286 286 286 287 289 289 288 290 290 289 288 288 288 288 287 287 288 289 289
296 296 297 297 297 297 297 297 297 296 294 290 288 288 288 288 287 287 287 287 286 287 287 286 286 288 290 291 289 287 288 288 287 287 287 287 288 287
295 296 296 296 297 297 296 296 296 296 296 294 290 287 287 287 287 287 287 287 287 286 286 286 287 288 289 290 288 286 286 287 288 288 288 287 287 287

GFSNE_850_thetae_093.txt.gz
Theta_e
324 324 325 323 322 322 321 321 321 322 317 314 314 313 313 314 313 311 311 310 311 312 311 312 312 311 311 311 312 311 310 310 310 309 307 307 307 308
325 323 324 323 323 323 321 320 322 321 315 313 312 313 313 313 312 311 310 309 310 310 310 309 309 310 310 310 310 310 309 308 308 307 306 306 306 305
323 322 324 324 323 323 322 322 321 317 313 312 312 312 313 313 312 311 309 308 308 308 308 307 308 309 308 308 308 308 308 307 306 305 304 303 304 309
324 323 324 324 324 323 322 322 317 313 312 311 311 312 312 311 311 309 307 307 306 306 306 307 308 308 308 308 307 307 306 306 304 303 302 303 306 310
326 325 325 325 324 323 322 321 314 312 311 311 311 310 310 309 308 307 305 306 306 305 305 305 305 306 306 306 306 304 304 303 302 301 301 303 306 308
324 325 324 325 324 323 321 317 313 312 311 310 309 308 309 308 307 305 305 305 305 304 305 304 304 304 304 305 304 303 302 301 301 301 300 302 304 307
322 322 322 322 322 321 318 313 312 311 310 309 308 307 307 306 306 304 304 304 304 304 304 304 303 303 303 303 302 301 300 300 300 299 300 300 302 305
321 321 320 319 320 317 314 312 310 310 309 308 307 306 305 304 304 302 302 303 303 303 303 302 302 302 302 300 300 300 299 299 297 295 295 298 299 302
319 319 318 317 315 314 312 310 309 308 308 307 306 305 305 304 301 302 302 302 302 301 301 301 302 301 300 300 295 297 297 293 291 290 290 291 295 299
314 314 314 314 313 311 309 308 307 306 306 305 304 303 303 303 302 302 302 301 300 300 300 300 300 299 299 296 291 290 290 289 289 289 289 290 290 294
311 311 310 309 309 308 308 307 305 305 304 303 303 303 303 302 301 300 300 299 298 298 298 297 297 297 295 292 290 289 289 289 288 289 289 289 289 289
309 309 308 308 306 306 307 305 304 304 303 303 303 303 302 300 296 295 296 295 296 295 295 295 295 293 290 290 289 288 288 289 289 290 290 290 290 289
307 307 307 307 306 305 306 304 303 302 303 302 302 301 298 294 292 291 291 291 292 293 292 292 292 291 290 289 289 288 289 289 290 290 290 290 290 290
306 306 306 305 305 304 304 302 301 301 302 302 301 300 296 292 291 290 291 291 291 292 292 290 288 289 288 288 290 290 290 290 290 290 290 290 290 290
304 305 304 303 303 303 303 301 300 300 300 300 300 299 294 290 290 290 290 290 290 290 289 289 288 288 288 288 289 290 290 291 290 291 290 290 290 290
301 301 302 302 302 301 300 300 299 299 299 299 299 296 290 290 289 289 289 289 288 288 288 287 288 287 288 289 289 289 290 292 291 290 289 289 290 290
299 300 300 299 299 299 299 299 299 298 298 297 297 293 289 289 289 289 289 288 288 288 288 287 287 287 288 289 290 290 290 289 288 288 288 288 288 289
297 298 298 298 299 299 299 299 299 298 298 297 296 293 289 289 289 288 288 288 288 287 287 287 287 287 288 290 291 292 292 290 287 287 287 288 289 292
296 297 297 298 298 298 299 298 298 298 297 296 296 294 289 288 288 288 288 288 287 286 286 286 287 289 289 291 292 292 291 289 287 287 287 287 289 291
296 296 296 297 297 298 298 298 297 297 297 296 296 293 288 287 287 287 287 288 287 286 286 287 288 290 290 289 290 291 290 289 288 287 287 288 289 289
295 295 296 296 296 296 297 298 297 298 297 296 295 292 289 288 287 287 287 287 286 286 286 287 289 288 287 288 290 291 288 288 289 289 288 287 287 288
293 294 294 295 296 296 296 296 296 296 296 295 294 292 290 289 287 287 287 287 287 287 287 287 286 287 287 288 289 291 288 287 288 289 288 288 287 288
291 292 293 294 295 296 296 296 296 296 295 295 295 293 290 288 288 287 287 287 287 287 286 286 286 286 286 287 291 291 288 286 287 288 289 288 288 288

GFSNE_850_thetae_096.txt.gz
Theta_e
326 327 326 325 325 325 325 326 324 324 322 320 319 318 315 314 314 313 312 311 310 310 311 312 313 312 311 310 310 310 311 311 310 310 308 307 308 307
324 325 326 325 324 324 323 324 323 321 321 321 319 316 314 313 313 313 312 311 310 309 310 311 310 310 310 309 309 309 309 309 309 308 307 306 306 305
325 323 323 324 323 321 321 321 320 320 321 321 316 314 313 313 313 313 312 311 309 308 308 308 309 307 308 309 308 308 308 308 307 306 305 304 303 304
324 325 323 321 321 323 323 323 322 322 322 322 318 313 312 312 313 312 311 310 307 307 306 306 307 307 307 307 307 308 308 306 305 305 304 303 302 306
324 324 325 323 322 323 324 323 323 322 322 319 314 312 312 312 312 311 309 308 306 306 306 305 305 304 305 305 306 306 306 305 305 304 302 301 302 305
323 324 323 325 324 323 324 324 323 321 319 314 312 311 311 311 311 308 307 307 305 305 305 305 304 304 304 304 304 304 304 303 303 302 301 300 300 303
321 322 322 322 322 323 323 322 322 320 316 312 312 311 310 310 309 308 306 305 304 304 304 304 304 303 303 303 303 302 301 301 301 300 299 299 299 301
318 318 319 321 321 321 321 322 321 321 316 312 311 311 310 309 308 306 305 304 303 303 303 303 303 303 303 302 302 300 300 300 300 299 296 294 297 299
315 316 318 319 320 321 321 320 317 314 311 311 311 311 309 307 306 304 304 303 302 302 302 302 302 302 301 301 300 300 296 298 297 293 291 291 291 295
313 314 315 316 315 317 317 315 315 312 312 311 310 308 307 305 304 304 302 301 302 302 302 300 300 300 300 300 299 298 291 290 290 290 289 290 290 291
309 311 312 314 312 312 312 312 311 311 309 309 307 306 304 303 302 302 302 301 301 301 300 299 299 298 299 298 297 292 290 289 289 289 289 289 289 289
307 308 309 309 310 310 310 309 308 307 307 306 305 304 302 302 301 302 301 301 300 299 298 297 297 296 296 295 292 290 289 289 289 289 290 290 289 289
305 306 306 307 307 307 307 306 306 305 304 303 302 302 301 301 302 300 298 297 297 295 294 295 295 295 293 289 289 289 289 289 289 289 290 290 290 290
302 303 305 305 305 305 305 305 304 303 302 301 301 302 302 302 300 296 293 293 292 292 293 292 292 291 291 290 289 289 289 289 290 290 290 290 290 290
300 301 302 303 303 303 303 303 302 301 301 301 302 302 302 299 295 292 291 291 291 291 292 293 291 288 288 288 288 290 290 290 291 291 291 290 290 290
298 300 300 300 300 301 301 301 301 301 300 301 301 301 299 297 293 291 290 290 291 291 291 291 291 289 288 287 288 289 290 292 294 293 290 290 290 290
295 297 298 298 299 299 299 299 300 300 299 299 299 299 298 296 291 290 289 289 289 289 289 289 288 288 287 288 288 289 289 292 291 290 289 289 289 289
294 296 296 297 298 299 298 298 298 298 298 299 298 298 297 297 291 289 288 289 288 288 287 287 287 287 287 288 289 289 291 292 290 289 288 288 288 288
292 295 296 296 296 298 298 298 299 298 298 297 298 298 296 296 290 289 288 288 288 287 286 286 287 286 286 288 290 292 293 292 290 289 287 287 287 288
290 293 295 296 296 296 296 297 297 297 297 297 297 297 296 296 291 288 288 288 287 287 286 286 286 286 287 289 291 292 292 292 291 288 287 287 287 288
289 291 293 294 295 295 296 296 296 297 297 297 296 296 295 294 292 288 288 288 287 286 286 286 287 286 286 288 290 290 291 290 290 289 288 288 288 288
288 289 291 293 294 294 295 295 296 296 295 296 296 296 295 294 293 288 288 287 287 286 286 286 285 286 288 289 288 289 291 290 289 289 289 289 288 289
286 288 289 291 292 293 294 294 295 295 295 296 296 295 295 294 292 290 289 287 286 286 286 285 285 285 287 287 287 289 291 292 289 288 288 288 289 289

GFSNE_850_thetae_099.txt.gz
Theta_e
324 324 324 323 323 323 324 325 327 325 323 323 322 321 321 320 318 315 314 313 312 310 310 309 310 310 311 311 311 310 309 309 309 310 309 308 308 308
324 324 324 324 323 324 326 327 326 325 323 322 321 322 320 317 316 314 313 313 312 310 310 309 309 309 310 309 310 309 308 308 308 308 307 306 306 306
324 324 323 324 324 324 323 325 324 324 321 319 320 319 317 316 314 314 313 313 312 311 310 309 308 309 309 307 307 308 307 307 308 307 306 306 305 303
323 323 324 323 323 323 323 321 321 321 320 320 321 320 318 315 314 313 313 312 312 311 309 307 307 308 308 306 307 306 306 307 307 305 305 304 303 301
322 322 322 323 324 324 321 322 321 322 321 320 320 320 319 314 313 313 312 312 311 309 307 306 306 305 306 305 305 305 305 305 305 304 304 303 302 300
323 323 322 324 324 325 324 321 322 323 323 323 322 322 320 315 312 312 312 312 310 308 307 306 305 305 304 304 303 303 304 303 302 302 303 301 301 299
319 318 321 321 322 322 323 323 323 322 323 321 320 319 317 313 312 312 311 310 307 307 306 305 304 304 304 304 303 303 303 301 301 301 301 300 299 298
313 315 316 318 319 321 322 321 322 321 321 321 319 320 316 313 312 311 310 308 306 306 305 304 303 303 303 303 302 302 301 300 300 300 300 297 295 295
310 311 312 314 317 318 319 320 320 321 320 320 320 320 315 312 311 310 309 308 306 305 303 303 303 303 302 302 301 301 300 300 296 298 296 292 291 291
308 309 311 311 313 315 317 318 319 318 317 316 314 313 312 311 312 311 308 306 304 304 302 302 302 302 301 301 300 300 300 298 292 291 290 290 290 290
303 306 308 309 311 311 312 313 314 314 314 313 313 312 313 311 312 308 306 304 303 302 302 301 301 300 300 300 299 299 299 293 290 290 289 289 289 289
301 302 306 307 309 309 309 309 310 312 312 311 311 310 309 308 306 306 304 303 303 301 301 301 300 299 298 298 298 297 295 290 289 289 289 290 289 289
298 301 302 305 306 307 307 307 308 308 309 308 307 307 307 306 305 303 302 302 302 301 301 299 299 298 296 290 294 294 291 289 289 289 289 290 290 290
296 298 301 303 304 305 304 305 305 305 305 305 305 305 304 304 302 301 302 301 300 300 299 296 295 295 296 295 291 290 290 289 289 289 289 290 290 290
295 296 297 300 302 303 304 303 303 303 304 303 303 303 304 302 301 301 301 299 297 297 296 295 293 293 292 292 292 290 289 289 289 290 290 290 290 290
291 295 296 297 299 301 301 301 301 301 302 303 303 302 301 300 300 300 299 295 294 294 293 292 293 292 289 288 289 288 290 290 290 290 290 290 290 291
289 290 293 296 297 298 299 299 300 300 300 300 301 300 300 300 299 298 294 292 291 292 292 292 292 292 291 288 288 288 289 290 292 291 292 291 290 290
288 289 291 293 296 296 297 298 298 299 300 299 299 299 299 299 298 294 291 290 290 290 291 291 291 290 290 288 287 287 289 289 291 290 289 289 289 289
287 288 289 291 294 296 296 296 297 298 298 298 298 297 298 297 296 294 291 289 289 289 289 288 288 288 288 287 287 288 289 290 290 290 289 288 288 288
286 287 288 289 292 294 295 295 296 296 296 297 297 297 297 297 296 294 291 288 288 288 287 287 287 287 287 288 287 289 290 292 291 290 289 288 287 288
285 286 287 288 290 292 293 294 295 295 296 296 296 296 296 296 295 295 294 288 287 287 287 287 287 286 286 285 286 289 292 291 291 289 289 288 287 288
285 285 286 287 288 289 292 293 293 294 295 295 295 296 296 296 296 295 293 290 288 287 287 286 285 286 285 285 287 289 290 291 290 289 289 288 288 289
285 284 285 286 287 288 290 292 292 293 293 294 294 295 295 295 294 295 293 291 288 288 288 286 285 285 285 286 286 288 288 290 290 290 289 289 289 289

GFSNE_850_thetae_102.txt.gz
Theta_e
325 325 325 326 325 326 326 325 324 324 324 324 325 324 325 324 322 319 319 318 315 312 311 311 311 311 312 313 310 310 311 309 308 308 307 308 308 308
321 323 324 323 322 323 324 323 323 324 323 324 324 324 325 323 320 319 319 315 313 311 311 310 310 309 309 308 309 308 309 309 308 307 307 308 307 307
324 324 322 320 321 323 324 324 324 325 324 322 323 324 322 320 320 319 317 314 313 312 311 310 310 309 308 308 309 308 307 308 307 307 307 307 306 306
322 323 323 322 322 324 323 323 323 323 323 321 321 320 319 318 318 317 315 314 313 313 312 311 311 309 307 308 308 307 306 306 306 306 306 306 305 304
322 322 321 322 321 321 323 323 323 322 321 321 320 319 319 318 317 317 315 314 313 312 312 311 309 307 307 307 307 306 305 305 305 305 305 305 304 303
318 320 321 322 322 322 322 323 322 323 321 321 321 320 320 319 317 316 314 313 313 312 311 309 308 307 306 305 305 304 303 303 303 303 303 303 303 301
311 313 315 317 320 320 321 321 322 323 322 321 322 321 320 319 319 317 313 313 312 311 311 308 307 306 305 305 304 304 303 303 302 302 301 302 301 299
305 308 310 312 315 317 318 319 319 320 321 321 320 321 320 318 318 317 313 312 309 310 310 307 306 305 304 303 303 303 303 302 301 300 299 301 299 296
298 302 305 309 310 313 314 316 318 318 317 318 320 320 320 320 319 319 315 312 311 310 307 305 304 304 303 303 303 302 302 301 300 300 296 298 295 293
294 296 300 301 306 308 311 312 314 316 317 316 316 317 318 319 319 319 314 311 309 308 306 305 304 303 303 303 302 301 301 300 300 297 292 291 291 291
293 294 296 299 301 305 307 309 311 313 315 317 317 314 314 314 313 313 311 308 310 309 308 305 303 302 302 302 301 300 300 299 299 293 290 290 290 291
288 294 297 299 301 302 305 307 309 310 311 312 313 312 312 311 312 311 311 310 311 308 308 304 303 302 301 301 300 299 299 298 296 291 289 290 290 290
289 291 293 295 297 300 302 304 307 308 309 309 310 311 310 310 311 309 312 310 310 307 304 303 302 301 300 295 298 298 297 296 292 289 289 290 290 290
289 290 291 294 295 297 300 302 304 305 306 306 306 307 308 309 309 308 309 305 304 302 302 303 301 301 300 297 291 296 296 293 290 289 289 290 290 291
288 288 289 291 294 295 297 300 301 301 304 304 304 305 306 307 307 306 305 303 301 301 301 300 300 295 296 297 295 292 291 291 289 289 289 290 290 291
287 287 288 289 290 294 296 298 299 300 301 303 303 302 303 303 303 303 302 301 300 299 299 298 298 295 294 294 295 293 290 289 289 289 290 290 290 291
287 287 287 288 289 291 294 296 297 298 299 300 300 301 300 301 300 300 300 300 299 299 297 297 296 294 292 289 289 290 289 289 290 290 290 290 291 292
286 286 286 287 289 289 292 294 295 296 298 299 299 299 299 299 299 299 300 299 299 297 295 295 294 293 293 291 288 288 288 289 291 290 291 292 292 291
285 285 285 286 287 288 290 292 294 295 296 297 297 297 298 298 298 297 297 296 296 293 293 293 292 292 292 292 289 287 287 289 290 291 291 290 290 289
284 284 285 286 286 287 288 290 293 294 294 295 296 296 296 297 297 296 295 294 292 291 291 291 291 291 291 290 289 288 287 288 289 291 291 290 289 288
284 284 285 285 285 285 287 289 291 293 293 293 294 295 296 296 295 296 296 295 292 290 290 290 289 288 287 287 286 287 287 288 287 290 291 289 288 288
284 284 285 285 285 285 287 288 290 291 293 293 293 293 294 294 295 296 296 295 293 292 289 287 287 286 285 285 285 286 288 288 289 289 289 287 288 288
283 283 284 284 284 285 286 287 288 290 291 292 292 293 293 293 293 294 295 294 293 291 288 287 286 285 285 285 285 286 289 290 290 290 289 289 288 289

GFSNE_850_thetae_105.txt.gz
Theta_e
326 325 321 321 324 325 324 324 324 324 325 323 325 325 324 323 322 324 324 324 321 318 316 316 315 315 318 317 316 315 313 311 310 310 308 307 307 308
324 324 324 323 324 325 324 324 324 324 324 323 323 323 323 322 322 324 323 321 319 318 318 315 313 313 312 313 311 312 309 308 310 309 308 307 307 308
321 324 323 321 324 324 324 323 323 321 321 323 323 322 323 324 324 323 321 321 318 319 314 311 311 311 310 309 309 309 308 308 307 308 307 307 307 307
321 322 321 322 323 321 322 323 322 320 321 322 322 323 323 323 322 321 318 317 318 314 313 313 312 311 310 310 309 308 309 308 307 306 306 306 307 306
314 317 321 320 321 322 322 323 323 321 320 323 323 322 321 320 319 317 316 317 316 314 313 313 311 310 310 310 307 307 308 307 305 305 305 305 305 305
306 310 312 316 319 320 321 321 321 321 321 321 322 321 320 319 317 315 316 316 315 314 314 313 312 311 310 308 306 307 307 305 304 304 304 304 303 303
296 299 302 306 310 313 316 318 320 321 321 318 321 320 320 319 318 317 317 316 315 315 314 314 312 311 309 308 306 305 305 304 303 303 303 302 302 302
295 296 295 296 300 305 310 313 315 317 318 319 321 320 320 320 319 318 317 314 311 314 313 313 311 310 308 306 305 305 304 304 303 303 302 301 301 301
292 293 294 295 295 296 300 307 310 313 314 316 317 318 320 319 320 319 319 317 317 317 315 312 310 308 307 305 304 303 303 303 303 302 301 299 299 299
289 290 291 292 294 295 297 299 302 307 311 313 313 315 316 317 318 319 319 316 314 312 312 311 310 308 305 304 303 303 303 302 302 301 301 295 295 292
288 288 289 289 291 294 297 299 300 303 307 309 310 314 313 316 316 316 314 312 310 310 310 310 309 307 304 303 303 302 302 301 301 300 300 291 291 290
287 287 288 288 292 294 295 297 299 300 303 307 308 310 313 313 313 314 314 312 308 308 309 309 309 307 302 302 302 301 301 301 300 300 296 290 290 290
288 288 288 287 288 291 291 294 296 298 300 303 306 308 310 311 311 312 312 312 312 311 311 310 310 305 303 301 301 300 300 300 299 299 293 289 289 289
288 287 287 288 288 288 289 290 293 296 298 301 303 306 306 308 309 311 311 311 311 311 311 312 310 307 304 302 299 300 300 299 298 296 290 289 290 290
287 287 287 287 287 288 288 289 291 294 297 299 300 302 305 306 308 309 310 308 310 309 309 307 306 304 303 302 302 297 298 297 297 293 289 289 290 290
287 287 287 287 287 287 287 289 291 293 296 298 299 300 301 304 304 306 305 308 305 304 303 302 301 301 300 300 300 295 294 296 295 291 289 289 290 290
288 287 286 286 285 286 287 288 289 292 294 296 297 298 299 301 301 301 303 302 303 302 301 300 299 299 297 295 296 297 294 292 291 290 289 290 290 290
287 287 286 284 285 285 286 287 288 291 292 294 295 296 297 299 299 300 300 300 300 300 299 299 298 297 295 293 293 295 293 291 289 289 289 289 290 291
287 285 284 284 284 285 285 286 287 289 291 293 294 295 296 296 297 298 298 299 298 298 298 299 297 296 294 291 289 288 290 289 289 289 289 289 290 291
285 284 284 284 284 285 285 284 286 288 290 292 293 293 294 295 296 296 296 297 296 297 296 296 296 295 295 293 291 288 287 288 289 290 289 290 290 290
285 284 284 284 284 285 284 284 286 287 289 291 292 292 292 293 294 294 295 296 297 296 295 294 294 293 293 292 291 290 288 287 288 290 291 290 289 289
283 283 283 283 283 284 284 284 285 286 287 290 291 291 291 292 292 293 293 293 294 295 294 294 292 292 291 291 290 289 287 287 287 287 287 289 290 290
282 282 282 282 283 283 283 283 284 285 287 288 290 290 291 291 291 292 292 292 293 293 293 291 291 290 290 289 287 286 286 286 287 287 287 287 287 289

GFSNE_850_thetae_108.txt.gz
Theta_e
326 325 326 324 326 326 325 325 325 324 325 325 324 323 324 324 324 324 322 323 323 323 324 324 319 319 316 319 318 321 321 318 316 314 312 310 309 307
322 324 325 324 325 325 324 323 321 322 324 323 323 323 323 323 323 322 322 323 322 322 323 324 320 316 315 317 317 321 318 315 314 312 309 310 308 307
321 320 322 321 324 324 323 322 323 324 324 323 322 323 323 322 322 321 322 322 322 323 323 323 318 314 316 316 318 318 313 312 312 309 308 309 308 307
310 314 317 319 321 321 323 323 322 323 324 323 323 323 321 321 320 322 322 323 323 323 322 319 317 316 315 315 314 311 310 310 309 308 307 307 306 306
301 304 308 311 314 318 320 320 321 322 321 320 321 321 321 321 320 321 321 321 321 320 319 316 316 314 314 313 311 311 310 309 309 309 307 306 306 305
296 296 297 300 304 308 311 315 318 319 320 319 319 321 320 321 320 321 319 318 315 316 315 315 313 312 312 312 311 310 310 307 307 308 306 305 304 304
294 294 295 295 295 296 300 305 310 313 315 317 319 320 321 319 320 320 319 316 314 315 314 314 314 313 313 311 311 310 310 307 307 307 304 303 303 303
289 290 291 293 294 294 295 295 300 307 310 313 314 316 317 318 319 320 318 314 313 314 314 314 313 313 313 312 311 311 308 306 306 305 304 304 303 302
288 288 288 289 290 291 292 294 295 297 304 308 310 312 312 316 315 319 319 319 317 316 315 314 315 314 313 312 311 310 308 306 305 304 304 303 302 301
287 287 288 288 288 292 293 293 294 295 297 300 305 307 310 312 313 315 315 319 317 316 314 313 314 314 314 313 311 310 307 305 304 304 303 302 301 299
289 289 288 288 289 288 290 292 293 294 296 297 298 303 307 309 311 313 314 312 310 313 315 314 314 312 311 310 311 310 305 305 303 303 302 301 301 295
289 289 289 289 288 288 289 290 290 291 292 293 297 297 301 306 308 310 311 313 311 309 312 312 312 312 307 308 310 306 303 303 302 303 301 300 299 291
289 288 288 288 288 288 289 289 289 290 291 291 293 296 298 301 305 309 310 310 311 312 314 312 311 310 309 308 308 307 302 302 301 301 300 300 297 290
288 288 288 287 288 287 287 288 288 288 289 290 291 294 296 298 302 304 308 309 309 311 313 312 311 310 309 307 306 306 302 301 300 300 300 299 294 289
288 287 287 288 288 288 287 287 287 288 290 291 291 294 296 297 299 302 303 305 307 307 309 308 310 308 310 310 309 307 302 300 300 299 299 298 291 290
288 287 287 288 287 287 286 287 287 287 288 289 291 293 296 297 298 300 300 302 304 304 305 305 306 308 309 310 309 305 302 300 299 299 298 294 289 290
288 287 287 288 287 286 286 286 286 286 287 288 290 292 293 295 297 298 298 299 301 302 301 303 301 303 306 309 303 301 301 300 299 299 296 290 289 290
287 287 287 287 286 286 285 285 286 286 285 286 288 291 292 293 295 296 296 297 298 300 300 301 301 300 300 299 300 300 298 296 297 296 295 289 289 290
286 286 286 286 285 285 285 285 285 285 285 287 288 290 291 293 293 294 295 295 296 299 300 300 299 299 297 295 295 297 298 293 295 291 293 289 289 290
285 285 285 285 285 284 284 285 285 285 285 286 288 289 290 291 292 292 293 294 295 296 297 298 299 299 299 297 295 293 294 295 292 289 290 288 289 289
284 284 284 283 284 284 284 284 284 284 284 285 287 288 290 291 291 292 292 293 293 295 296 297 297 296 296 296 293 291 291 289 289 289 289 288 288 289
282 282 282 282 282 282 283 283 283 283 283 284 286 287 289 290 290 291 291 291 291 292 294 295 295 294 295 294 292 289 287 287 287 288 288 289 289 290
281 281 281 281 281 281 282 282 282 282 283 284 285 287 288 289 290 290 290 290 290 291 292 292 292 292 293 293 293 291 286 286 287 288 287 288 289 290

GFSNE_850_thetae_111.txt.gz
Theta_e
324 324 325 326 326 325 325 326 325 324 324 324 324 324 325 325 324 323 322 324 324 323 322 320 320 322 323 324 322 323 324 323 322 322 320 317 313 311
320 320 321 321 322 322 323 324 325 325 325 325 324 324 324 323 323 322 322 323 324 324 322 321 320 321 322 323 322 321 323 323 319 322 320 315 312 309
309 313 312 315 318 319 321 321 324 324 324 324 324 322 323 323 323 323 322 323 323 322 322 321 321 322 322 323 322 320 320 319 318 321 317 313 311 308
302 303 301 307 311 310 314 319 320 320 320 322 322 323 324 323 323 322 322 322 321 321 320 320 321 322 322 323 320 319 318 317 319 318 314 311 309 308
296 296 296 296 297 300 302 310 313 316 317 319 320 323 321 322 322 321 320 320 320 320 320 320 320 321 322 321 319 318 316 319 317 313 310 309 308 307
292 292 293 294 295 296 296 296 298 301 307 311 316 317 319 319 320 319 321 320 320 320 320 321 320 320 319 320 318 316 318 315 312 310 310 308 308 307
290 290 290 290 290 291 293 294 294 295 296 300 306 311 313 315 316 319 318 320 319 319 319 318 316 318 319 317 316 316 313 312 311 310 309 307 308 306
289 289 289 289 289 289 290 292 292 293 295 299 303 306 308 311 313 314 316 317 317 318 318 316 315 317 316 315 316 314 312 312 311 310 308 307 307 304
288 288 288 289 289 289 290 291 290 292 293 296 298 301 303 306 308 311 312 314 315 317 317 314 314 315 314 314 313 313 313 312 311 310 307 306 305 304
290 290 289 289 289 291 290 289 289 289 291 291 293 296 299 301 305 307 308 310 312 313 315 313 314 314 314 314 313 313 312 311 311 310 307 305 304 304
290 290 290 290 290 288 288 288 288 289 288 288 289 291 294 296 298 303 307 307 309 311 312 311 313 313 313 314 314 313 313 311 310 310 307 305 304 304
289 289 289 289 289 289 288 288 288 288 288 288 288 288 288 289 290 296 301 303 306 309 310 310 311 312 308 312 312 312 309 308 309 309 307 304 304 303
288 288 289 289 289 288 289 288 288 288 288 288 288 287 288 289 289 293 295 300 303 306 308 310 310 310 309 308 309 307 308 308 306 306 305 304 303 303
287 288 288 288 288 289 289 289 288 288 287 287 289 289 291 291 291 294 294 295 298 302 306 308 309 310 309 307 309 309 305 306 306 308 305 303 303 302
287 288 288 288 287 287 288 288 287 287 287 287 287 287 289 289 291 292 294 296 298 299 303 304 307 308 309 308 309 309 306 304 304 305 303 302 303 301
287 288 288 288 287 288 288 287 286 286 286 287 286 287 287 288 289 291 292 294 296 299 301 301 304 306 307 308 308 307 307 304 303 302 303 302 302 299
287 287 287 286 287 287 287 286 286 285 286 285 285 285 286 287 289 291 292 293 294 296 299 299 302 302 304 304 304 305 305 303 305 304 301 301 300 298
286 286 285 286 286 286 285 285 285 285 285 285 285 285 286 288 289 290 292 292 293 295 296 297 299 300 298 299 300 302 302 303 303 302 301 301 299 297
285 285 286 286 286 285 285 285 285 285 285 285 284 285 286 287 288 289 290 291 292 293 293 294 296 299 296 295 296 298 301 302 301 300 299 298 299 296
285 285 285 285 285 284 284 284 284 284 284 284 284 284 285 286 288 289 290 290 291 292 292 294 295 296 296 295 295 296 296 299 299 298 295 294 296 292
283 283 283 283 283 283 283 283 282 283 283 283 283 283 284 286 287 289 289 290 291 291 292 293 293 294 295 296 296 292 292 293 296 296 294 294 293 289
281 281 281 281 281 281 282 282 282 282 282 283 283 283 284 286 287 288 289 289 290 291 291 292 293 292 294 295 296 295 291 290 291 292 291 293 293 288
281 281 280 280 281 280 281 281 281 282 282 283 282 283 284 285 287 288 289 289 289 290 290 291 290 291 293 295 296 293 290 288 289 288 288 288 290 289

GFSNE_850_thetae_114.txt.gz
Theta_e
320 321 320 322 323 323 324 323 324 324 325 325 325 324 324 324 324 324 324 322 321 322 324 324 325 325 323 322 320 321 319 321 324 325 324 324 321 319
310 311 312 313 317 319 317 319 320 319 322 324 324 325 325 325 325 324 323 323 322 322 324 324 323 323 322 321 321 321 321 322 323 324 324 322 321 320
301 299 303 300 306 304 311 312 314 316 313 319 321 322 325 325 325 325 324 324 322 323 323 322 323 323 322 321 321 321 322 322 323 322 324 323 319 319
302 305 301 296 297 302 303 298 307 309 307 311 317 318 318 322 322 323 323 323 323 322 322 323 322 322 320 320 320 320 321 322 322 322 323 321 317 318
291 292 293 294 294 294 295 297 295 298 298 301 308 314 314 317 320 321 322 322 323 322 322 322 322 321 321 320 320 322 321 322 323 322 321 318 317 317
290 290 290 291 291 290 290 291 292 294 295 295 297 299 304 309 313 315 318 319 318 319 320 321 320 320 320 320 320 320 321 321 322 322 318 317 317 312
289 289 289 289 288 289 290 293 294 292 292 293 294 296 299 304 307 309 312 313 316 317 318 319 319 319 320 320 320 320 320 320 321 319 317 316 313 310
288 288 288 288 289 289 290 290 291 292 294 294 293 295 296 299 302 304 306 308 311 315 315 317 317 318 318 319 319 319 319 319 318 317 315 312 312 310
288 289 289 290 290 289 290 289 288 288 289 291 292 292 292 293 296 299 303 304 304 308 310 311 313 315 316 316 316 318 318 317 316 316 313 312 311 310
288 289 290 290 290 290 290 288 287 287 288 288 288 288 289 289 289 293 296 300 303 306 307 308 311 312 314 314 315 316 316 316 315 314 312 312 310 308
289 289 289 289 289 289 289 288 288 288 288 287 287 287 287 287 288 288 289 292 296 300 304 306 308 310 312 313 314 315 315 315 314 313 313 312 310 308
288 288 287 288 289 289 289 288 289 288 288 288 287 287 287 287 288 288 290 293 295 296 300 304 306 308 310 311 312 314 313 313 313 313 312 312 310 307
288 288 287 288 289 289 289 289 288 289 288 287 287 287 287 288 288 291 292 291 292 295 297 300 303 305 308 309 311 311 311 312 311 311 310 310 310 308
287 287 287 288 288 289 288 288 288 289 288 286 286 286 286 287 287 287 288 291 290 290 294 297 298 302 305 308 308 310 310 310 308 308 309 308 306 306
286 286 287 288 288 288 287 287 288 288 286 286 286 286 285 285 285 286 286 287 289 290 290 292 296 298 301 304 306 308 308 305 305 306 306 307 307 307
285 286 286 286 286 286 286 286 286 286 285 285 285 285 285 285 285 285 287 288 290 290 291 291 294 298 300 300 304 306 307 305 305 304 305 305 305 305
286 286 285 285 285 285 285 286 286 285 285 285 285 285 285 284 285 285 286 287 288 290 291 292 293 296 299 299 301 303 305 306 306 306 303 303 303 304
285 285 285 285 285 285 286 285 285 285 284 284 284 284 284 284 284 285 286 287 288 289 291 292 292 294 296 298 299 300 302 304 304 303 302 300 301 301
284 284 285 285 285 285 285 285 284 283 283 283 283 284 283 283 283 284 285 286 288 289 290 290 291 292 293 295 297 298 300 301 301 300 301 300 300 301
282 282 282 282 282 283 283 283 282 282 282 282 282 282 282 282 283 284 285 286 288 289 290 290 290 291 292 294 295 297 298 299 300 300 297 296 298 299
281 281 281 281 281 281 281 281 281 281 281 282 282 282 282 282 283 284 285 286 288 289 289 290 291 292 292 292 295 295 295 295 297 300 297 295 296 296
280 280 281 281 280 280 280 280 280 280 280 281 281 282 282 282 283 284 285 286 288 288 289 290 290 290 290 291 293 294 294 293 293 294 295 297 298 293
280 280 280 280 280 280 280 280 280 280 280 280 281 282 282 283 283 284 285 286 288 288 289 289 290 289 289 291 292 292 292 291 291 291 292 293 295 297

GFSNE_850_thetae_117.txt.gz
Theta_e
315 315 317 316 318 318 315 315 314 315 318 322 324 324 324 324 324 324 324 324 325 326 324 323 323 322 323 323 325 324 323 322 322 322 321 321 325 325
303 302 304 303 309 308 307 307 305 309 310 315 319 320 321 322 323 324 324 325 324 325 324 323 323 323 324 323 325 324 323 321 322 322 322 322 323 324
301 304 305 304 303 300 299 302 301 300 302 308 310 312 315 319 321 323 324 324 324 324 324 323 323 321 322 324 324 324 323 322 322 322 321 323 323 324
292 293 293 294 299 301 305 302 294 296 298 302 305 303 304 310 316 317 321 322 323 324 324 324 322 322 321 324 323 323 322 322 321 321 321 322 322 323
290 290 291 291 291 291 292 294 298 294 293 293 296 296 296 299 306 314 317 317 320 319 322 323 323 321 322 322 322 322 321 321 321 321 321 322 322 322
289 289 289 290 289 289 290 290 292 292 292 292 292 292 294 296 299 303 312 315 315 317 318 318 320 320 322 322 322 321 321 321 321 320 322 321 322 322
288 288 288 289 288 289 290 290 290 290 290 290 291 291 292 293 296 299 302 306 311 312 314 316 317 318 319 320 319 319 320 320 320 320 321 321 322 321
288 289 289 290 290 290 290 289 289 288 288 289 290 290 290 290 290 291 293 298 300 303 309 313 313 315 317 317 318 318 319 320 320 320 320 321 321 319
288 288 289 290 290 290 290 290 289 288 287 287 288 288 288 288 288 288 289 289 291 296 302 305 308 310 313 315 316 317 317 318 318 319 319 319 317 316
288 288 289 289 289 289 290 289 288 288 288 288 288 288 287 287 287 287 288 288 288 289 290 297 301 305 308 311 314 315 316 317 318 318 317 317 317 315
288 288 288 287 287 289 290 289 288 288 288 288 288 287 287 287 287 288 288 289 290 290 290 293 295 301 304 307 311 313 313 314 315 315 315 316 315 314
287 288 288 287 287 289 289 289 288 288 287 289 288 287 286 286 286 287 287 289 290 291 293 296 297 300 302 301 306 310 311 312 313 314 315 315 314 313
288 288 287 287 287 288 288 289 289 288 288 289 288 286 286 286 286 286 286 287 288 289 290 290 292 295 297 299 303 306 310 311 311 311 312 313 313 313
286 285 285 286 287 288 288 289 288 288 288 288 287 286 285 285 285 285 285 285 286 286 286 288 289 290 294 296 298 302 304 307 309 309 310 311 311 312
285 285 285 286 286 286 286 286 287 287 286 287 285 285 285 285 285 285 285 285 285 286 287 288 289 290 290 292 294 297 301 304 307 308 307 308 309 310
284 285 285 285 285 285 285 285 285 285 286 286 285 284 284 284 284 284 284 284 284 285 287 287 288 291 291 290 292 295 298 301 303 306 307 307 306 307
285 284 285 284 284 284 285 284 285 285 285 285 284 283 283 283 283 284 283 283 285 286 286 287 287 289 291 291 291 293 296 299 301 303 305 305 304 305
284 284 283 283 284 284 285 285 284 284 284 284 283 283 282 282 283 283 282 282 283 284 285 286 288 289 290 291 291 293 295 297 299 301 303 304 303 303
282 281 281 282 282 282 282 282 282 282 282 282 282 281 281 282 282 282 282 282 283 284 285 286 288 289 290 290 291 292 294 296 298 299 301 301 303 303
281 281 281 281 281 281 281 281 281 281 281 281 281 281 281 281 281 282 282 283 283 284 285 286 288 289 290 290 291 293 293 295 297 298 299 299 299 300
281 281 281 281 281 281 281 281 281 280 280 281 281 280 280 281 281 282 282 283 283 284 285 286 288 288 289 290 290 291 292 294 295 297 298 298 297 296
282 282 282 282 281 281 281 281 281 281 280 280 281 280 281 281 281 282 282 283 283 284 286 287 288 289 289 290 289 290 291 292 294 295 296 298 296 294
282 282 282 283 283 282 282 282 282 282 282 281 281 281 281 281 281 281 282 283 283 285 286 287 288 289 289 289 289 290 290 292 294 293 293 293 295 297

GFSNE_850_thetae_120.txt.gz
Theta_e
313 313 314 314 313 313 313 314 313 311 314 318 322 323 323 323 323 324 324 323 324 324 324 324 324 324 324 322 323 322 323 325 325 325 324 324 322 321
304 304 303 302 304 304 303 303 306 307 306 311 314 313 315 316 317 319 319 322 322 324 324 324 324 325 325 325 322 322 323 324 323 324 323 322 322 322
295 296 298 299 303 303 303 303 300 299 299 300 302 305 309 309 310 314 314 318 321 323 323 324 324 325 326 324 323 323 323 323 324 324 323 322 321 322
291 291 291 291 292 292 292 293 295 299 301 300 304 304 299 296 304 303 304 313 316 318 320 322 323 324 324 325 323 322 323 324 323 323 324 322 322 322
289 290 290 290 290 290 290 290 290 291 292 293 293 295 293 292 294 296 298 302 311 315 316 318 320 322 323 323 324 322 322 322 323 323 323 322 322 322
289 289 289 289 289 289 289 289 290 290 290 290 290 290 290 291 291 292 294 296 299 305 312 314 316 317 319 320 321 322 322 321 323 323 322 322 321 321
288 288 289 289 289 289 289 289 289 289 288 288 288 288 289 289 289 289 289 290 293 293 299 308 313 314 317 318 319 320 321 321 322 322 322 321 321 321
288 288 289 289 290 290 290 290 289 289 288 288 287 287 287 287 287 287 288 288 289 291 292 295 299 311 314 313 315 317 318 319 319 319 319 320 320 321
288 288 288 289 289 289 289 290 289 289 288 288 288 288 288 288 287 287 287 287 287 288 288 289 291 293 301 308 311 312 314 317 318 319 319 320 320 320
288 288 288 288 287 288 289 290 290 289 288 288 288 288 288 287 286 287 287 288 288 288 289 290 289 290 291 295 299 308 311 315 316 317 318 319 319 318
287 287 288 288 288 288 289 289 289 289 288 288 287 288 289 287 286 286 286 287 287 287 288 291 293 294 294 293 293 296 306 311 315 316 317 318 317 317
287 287 287 287 287 288 288 288 288 288 289 288 288 288 288 287 286 285 285 285 286 286 287 288 289 289 291 293 296 301 300 305 311 312 313 314 316 315
286 286 286 285 286 287 288 288 288 289 289 289 288 287 287 287 286 285 285 285 285 284 285 285 286 286 287 289 290 297 301 305 307 308 309 312 314 315
285 285 284 285 286 286 286 287 287 287 287 287 287 286 287 286 285 285 285 285 285 284 285 285 285 287 288 289 290 289 291 298 302 303 306 308 309 311
285 285 285 285 285 285 285 285 286 285 285 285 285 286 286 285 284 284 284 284 284 284 284 285 285 286 287 287 288 290 290 289 295 300 302 305 306 308
284 284 284 284 284 284 284 284 284 284 285 286 286 286 285 284 284 283 283 283 283 284 284 285 285 286 286 287 288 289 290 291 290 297 300 302 303 305
284 284 284 283 282 283 283 284 284 284 284 284 285 284 284 283 283 282 282 282 282 283 284 284 284 285 286 287 288 288 289 290 292 291 296 299 301 303
284 283 282 282 282 282 282 282 282 282 282 282 282 282 282 282 281 281 282 282 281 282 282 284 284 285 286 287 288 289 289 289 289 293 292 297 299 301
282 282 282 282 281 281 281 281 281 281 281 281 281 280 280 280 281 281 281 281 282 282 282 283 283 284 285 287 288 288 289 290 291 291 294 295 298 300
283 282 282 282 282 281 281 281 281 281 281 281 281 280 280 280 280 280 280 281 281 282 282 283 284 284 285 286 288 288 289 290 291 292 293 294 296 298
283 282 283 283 283 282 282 282 282 282 282 281 281 280 280 280 280 280 281 280 281 282 282 283 285 285 286 287 287 288 289 290 290 292 293 296 295 296
283 283 283 283 283 283 283 283 283 283 282 282 282 282 281 281 281 281 281 280 280 281 282 283 285 286 286 287 288 287 289 289 289 291 292 294 295 295
283 284 284 284 284 284 284 284 283 283 283 283 282 282 282 281 281 281 281 281 281 281 282 283 285 285 286 287 288 288 288 289 290 290 291 294 294 295